<?xml version="1.0" encoding="UTF-8" standalone="no" ?>
<gpx xmlns="http://www.topografix.com/GPX/1/1" xmlns:xsi="http://www.w3.org/2001/XMLSchema-instance" xsi:schemaLocation="http://www.topografix.com/GPX/1/1 http://www.topografix.com/GPX/1/1/gpx.xsd" version="1.1" creator="VisuGPX - https://www.visugpx.com">
  <metadata>
    <name>Roc d'Azé 50 Km 2022</name>
  </metadata>
  <trk>
    <name><![CDATA[15414243-50 Km 2022 définitif]]></name>
    <trkseg>
      <trkpt lat="46.43096" lon="4.76382">
        <ele>237</ele>
        <time>2022-08-22T18:03:08Z</time>
      </trkpt>
      <trkpt lat="46.43027" lon="4.76363">
        <ele>237</ele>
        <time>2022-08-22T18:03:24Z</time>
      </trkpt>
      <trkpt lat="46.43023" lon="4.76363">
        <ele>237</ele>
        <time>2022-08-22T18:03:25Z</time>
      </trkpt>
      <trkpt lat="46.43023" lon="4.76412">
        <ele>238</ele>
        <time>2022-08-22T18:03:33Z</time>
      </trkpt>
      <trkpt lat="46.4302" lon="4.76447">
        <ele>240</ele>
        <time>2022-08-22T18:03:39Z</time>
      </trkpt>
      <trkpt lat="46.43015" lon="4.76481">
        <ele>242</ele>
        <time>2022-08-22T18:03:44Z</time>
      </trkpt>
      <trkpt lat="46.43" lon="4.76523">
        <ele>244</ele>
        <time>2022-08-22T18:03:52Z</time>
      </trkpt>
      <trkpt lat="46.42991" lon="4.76536">
        <ele>245</ele>
        <time>2022-08-22T18:03:55Z</time>
      </trkpt>
      <trkpt lat="46.4298" lon="4.76541">
        <ele>245</ele>
        <time>2022-08-22T18:03:58Z</time>
      </trkpt>
      <trkpt lat="46.42905" lon="4.76566">
        <ele>246</ele>
        <time>2022-08-22T18:04:16Z</time>
      </trkpt>
      <trkpt lat="46.42871" lon="4.76574">
        <ele>247</ele>
        <time>2022-08-22T18:04:24Z</time>
      </trkpt>
      <trkpt lat="46.42727" lon="4.7657">
        <ele>246</ele>
        <time>2022-08-22T18:04:57Z</time>
      </trkpt>
      <trkpt lat="46.42708" lon="4.7658">
        <ele>246</ele>
        <time>2022-08-22T18:05:02Z</time>
      </trkpt>
      <trkpt lat="46.42672" lon="4.76607">
        <ele>248</ele>
        <time>2022-08-22T18:05:12Z</time>
      </trkpt>
      <trkpt lat="46.42638" lon="4.76622">
        <ele>248</ele>
        <time>2022-08-22T18:05:20Z</time>
      </trkpt>
      <trkpt lat="46.42601" lon="4.76649">
        <ele>249</ele>
        <time>2022-08-22T18:05:30Z</time>
      </trkpt>
      <trkpt lat="46.42604" lon="4.76667">
        <ele>250</ele>
        <time>2022-08-22T18:05:33Z</time>
      </trkpt>
      <trkpt lat="46.42612" lon="4.76724">
        <ele>253</ele>
        <time>2022-08-22T18:05:42Z</time>
      </trkpt>
      <trkpt lat="46.42622" lon="4.76807">
        <ele>257</ele>
        <time>2022-08-22T18:05:55Z</time>
      </trkpt>
      <trkpt lat="46.42626" lon="4.76851">
        <ele>260</ele>
        <time>2022-08-22T18:06:03Z</time>
      </trkpt>
      <trkpt lat="46.42625" lon="4.76877">
        <ele>261</ele>
        <time>2022-08-22T18:06:07Z</time>
      </trkpt>
      <trkpt lat="46.42618" lon="4.76907">
        <ele>263</ele>
        <time>2022-08-22T18:06:12Z</time>
      </trkpt>
      <trkpt lat="46.42591" lon="4.76963">
        <ele>264</ele>
        <time>2022-08-22T18:06:23Z</time>
      </trkpt>
      <trkpt lat="46.42529" lon="4.77118">
        <ele>270</ele>
        <time>2022-08-22T18:06:52Z</time>
      </trkpt>
      <trkpt lat="46.42506" lon="4.77192">
        <ele>276</ele>
        <time>2022-08-22T18:07:05Z</time>
      </trkpt>
      <trkpt lat="46.42499" lon="4.77219">
        <ele>277</ele>
        <time>2022-08-22T18:07:09Z</time>
      </trkpt>
      <trkpt lat="46.42494" lon="4.77241">
        <ele>279</ele>
        <time>2022-08-22T18:07:13Z</time>
      </trkpt>
      <trkpt lat="46.42483" lon="4.77311">
        <ele>283</ele>
        <time>2022-08-22T18:07:25Z</time>
      </trkpt>
      <trkpt lat="46.4248" lon="4.77329">
        <ele>284</ele>
        <time>2022-08-22T18:07:28Z</time>
      </trkpt>
      <trkpt lat="46.42476" lon="4.77392">
        <ele>287</ele>
        <time>2022-08-22T18:07:38Z</time>
      </trkpt>
      <trkpt lat="46.42523" lon="4.77425">
        <ele>296</ele>
        <time>2022-08-22T18:07:50Z</time>
      </trkpt>
      <trkpt lat="46.42689" lon="4.77549">
        <ele>324</ele>
        <time>2022-08-22T18:08:34Z</time>
      </trkpt>
      <trkpt lat="46.42787" lon="4.77624">
        <ele>335</ele>
        <time>2022-08-22T18:09:00Z</time>
      </trkpt>
      <trkpt lat="46.42791" lon="4.77627">
        <ele>336</ele>
        <time>2022-08-22T18:09:01Z</time>
      </trkpt>
      <trkpt lat="46.42815" lon="4.77636">
        <ele>338</ele>
        <time>2022-08-22T18:09:06Z</time>
      </trkpt>
      <trkpt lat="46.42841" lon="4.77629">
        <ele>339</ele>
        <time>2022-08-22T18:09:13Z</time>
      </trkpt>
      <trkpt lat="46.43067" lon="4.77548">
        <ele>347</ele>
        <time>2022-08-22T18:10:07Z</time>
      </trkpt>
      <trkpt lat="46.43076" lon="4.77546">
        <ele>348</ele>
        <time>2022-08-22T18:10:09Z</time>
      </trkpt>
      <trkpt lat="46.43032" lon="4.77142">
        <ele>313</ele>
        <time>2022-08-22T18:11:15Z</time>
      </trkpt>
      <trkpt lat="46.43016" lon="4.76976">
        <ele>295</ele>
        <time>2022-08-22T18:11:42Z</time>
      </trkpt>
      <trkpt lat="46.43004" lon="4.76957">
        <ele>292</ele>
        <time>2022-08-22T18:11:46Z</time>
      </trkpt>
      <trkpt lat="46.42994" lon="4.76953">
        <ele>290</ele>
        <time>2022-08-22T18:11:48Z</time>
      </trkpt>
      <trkpt lat="46.42979" lon="4.76908">
        <ele>283</ele>
        <time>2022-08-22T18:11:57Z</time>
      </trkpt>
      <trkpt lat="46.43012" lon="4.76904">
        <ele>286</ele>
        <time>2022-08-22T18:12:04Z</time>
      </trkpt>
      <trkpt lat="46.43032" lon="4.76898">
        <ele>287</ele>
        <time>2022-08-22T18:12:09Z</time>
      </trkpt>
      <trkpt lat="46.43077" lon="4.76872">
        <ele>287</ele>
        <time>2022-08-22T18:12:20Z</time>
      </trkpt>
      <trkpt lat="46.431" lon="4.76868">
        <ele>289</ele>
        <time>2022-08-22T18:12:26Z</time>
      </trkpt>
      <trkpt lat="46.43123" lon="4.76864">
        <ele>290</ele>
        <time>2022-08-22T18:12:31Z</time>
      </trkpt>
      <trkpt lat="46.4316" lon="4.76845">
        <ele>290</ele>
        <time>2022-08-22T18:12:40Z</time>
      </trkpt>
      <trkpt lat="46.4324" lon="4.76843">
        <ele>299</ele>
        <time>2022-08-22T18:12:59Z</time>
      </trkpt>
      <trkpt lat="46.43298" lon="4.76802">
        <ele>294</ele>
        <time>2022-08-22T18:13:14Z</time>
      </trkpt>
      <trkpt lat="46.43303" lon="4.76798">
        <ele>294</ele>
        <time>2022-08-22T18:13:15Z</time>
      </trkpt>
      <trkpt lat="46.43358" lon="4.76801">
        <ele>299</ele>
        <time>2022-08-22T18:13:28Z</time>
      </trkpt>
      <trkpt lat="46.43443" lon="4.7682">
        <ele>307</ele>
        <time>2022-08-22T18:13:48Z</time>
      </trkpt>
      <trkpt lat="46.43565" lon="4.7686">
        <ele>308</ele>
        <time>2022-08-22T18:14:18Z</time>
      </trkpt>
      <trkpt lat="46.43614" lon="4.7689">
        <ele>309</ele>
        <time>2022-08-22T18:14:30Z</time>
      </trkpt>
      <trkpt lat="46.437" lon="4.76954">
        <ele>308</ele>
        <time>2022-08-22T18:14:53Z</time>
      </trkpt>
      <trkpt lat="46.43773" lon="4.77021">
        <ele>306</ele>
        <time>2022-08-22T18:15:13Z</time>
      </trkpt>
      <trkpt lat="46.4385" lon="4.77117">
        <ele>308</ele>
        <time>2022-08-22T18:15:36Z</time>
      </trkpt>
      <trkpt lat="46.43878" lon="4.77151">
        <ele>308</ele>
        <time>2022-08-22T18:15:45Z</time>
      </trkpt>
      <trkpt lat="46.43891" lon="4.77168">
        <ele>307</ele>
        <time>2022-08-22T18:15:49Z</time>
      </trkpt>
      <trkpt lat="46.43932" lon="4.7721">
        <ele>305</ele>
        <time>2022-08-22T18:16:01Z</time>
      </trkpt>
      <trkpt lat="46.43957" lon="4.77247">
        <ele>305</ele>
        <time>2022-08-22T18:16:09Z</time>
      </trkpt>
      <trkpt lat="46.43996" lon="4.77293">
        <ele>303</ele>
        <time>2022-08-22T18:16:21Z</time>
      </trkpt>
      <trkpt lat="46.44017" lon="4.77338">
        <ele>305</ele>
        <time>2022-08-22T18:16:30Z</time>
      </trkpt>
      <trkpt lat="46.4404" lon="4.77374">
        <ele>305</ele>
        <time>2022-08-22T18:16:37Z</time>
      </trkpt>
      <trkpt lat="46.44067" lon="4.77396">
        <ele>303</ele>
        <time>2022-08-22T18:16:45Z</time>
      </trkpt>
      <trkpt lat="46.44111" lon="4.77408">
        <ele>299</ele>
        <time>2022-08-22T18:16:55Z</time>
      </trkpt>
      <trkpt lat="46.44149" lon="4.77425">
        <ele>297</ele>
        <time>2022-08-22T18:17:04Z</time>
      </trkpt>
      <trkpt lat="46.44175" lon="4.77448">
        <ele>297</ele>
        <time>2022-08-22T18:17:12Z</time>
      </trkpt>
      <trkpt lat="46.44207" lon="4.7749">
        <ele>298</ele>
        <time>2022-08-22T18:17:22Z</time>
      </trkpt>
      <trkpt lat="46.44224" lon="4.77524">
        <ele>299</ele>
        <time>2022-08-22T18:17:28Z</time>
      </trkpt>
      <trkpt lat="46.44225" lon="4.77524">
        <ele>299</ele>
        <time>2022-08-22T18:17:29Z</time>
      </trkpt>
      <trkpt lat="46.44224" lon="4.77524">
        <ele>299</ele>
        <time>2022-08-22T18:17:29Z</time>
      </trkpt>
      <trkpt lat="46.44209" lon="4.77519">
        <ele>300</ele>
        <time>2022-08-22T18:17:32Z</time>
      </trkpt>
      <trkpt lat="46.44172" lon="4.77496">
        <ele>302</ele>
        <time>2022-08-22T18:17:42Z</time>
      </trkpt>
      <trkpt lat="46.44133" lon="4.77489">
        <ele>303</ele>
        <time>2022-08-22T18:17:51Z</time>
      </trkpt>
      <trkpt lat="46.44115" lon="4.7748">
        <ele>304</ele>
        <time>2022-08-22T18:17:55Z</time>
      </trkpt>
      <trkpt lat="46.44084" lon="4.7748">
        <ele>305</ele>
        <time>2022-08-22T18:18:03Z</time>
      </trkpt>
      <trkpt lat="46.44064" lon="4.77497">
        <ele>309</ele>
        <time>2022-08-22T18:18:08Z</time>
      </trkpt>
      <trkpt lat="46.4403" lon="4.77478">
        <ele>313</ele>
        <time>2022-08-22T18:18:17Z</time>
      </trkpt>
      <trkpt lat="46.43999" lon="4.77454">
        <ele>317</ele>
        <time>2022-08-22T18:18:25Z</time>
      </trkpt>
      <trkpt lat="46.43951" lon="4.77452">
        <ele>322</ele>
        <time>2022-08-22T18:18:36Z</time>
      </trkpt>
      <trkpt lat="46.43863" lon="4.7746">
        <ele>335</ele>
        <time>2022-08-22T18:18:57Z</time>
      </trkpt>
      <trkpt lat="46.4381" lon="4.7773">
        <ele>346</ele>
        <time>2022-08-22T18:19:42Z</time>
      </trkpt>
      <trkpt lat="46.44142" lon="4.77798">
        <ele>316</ele>
        <time>2022-08-22T18:21:00Z</time>
      </trkpt>
      <trkpt lat="46.44337" lon="4.77825">
        <ele>296</ele>
        <time>2022-08-22T18:21:46Z</time>
      </trkpt>
      <trkpt lat="46.44366" lon="4.77889">
        <ele>291</ele>
        <time>2022-08-22T18:21:58Z</time>
      </trkpt>
      <trkpt lat="46.44379" lon="4.77911">
        <ele>289</ele>
        <time>2022-08-22T18:22:03Z</time>
      </trkpt>
      <trkpt lat="46.44394" lon="4.77979">
        <ele>285</ele>
        <time>2022-08-22T18:22:14Z</time>
      </trkpt>
      <trkpt lat="46.44389" lon="4.78055">
        <ele>286</ele>
        <time>2022-08-22T18:22:27Z</time>
      </trkpt>
      <trkpt lat="46.44387" lon="4.78104">
        <ele>286</ele>
        <time>2022-08-22T18:22:35Z</time>
      </trkpt>
      <trkpt lat="46.44386" lon="4.78162">
        <ele>285</ele>
        <time>2022-08-22T18:22:44Z</time>
      </trkpt>
      <trkpt lat="46.44389" lon="4.7827">
        <ele>282</ele>
        <time>2022-08-22T18:23:01Z</time>
      </trkpt>
      <trkpt lat="46.44363" lon="4.78241">
        <ele>287</ele>
        <time>2022-08-22T18:23:09Z</time>
      </trkpt>
      <trkpt lat="46.44316" lon="4.78203">
        <ele>294</ele>
        <time>2022-08-22T18:23:22Z</time>
      </trkpt>
      <trkpt lat="46.44292" lon="4.7817">
        <ele>297</ele>
        <time>2022-08-22T18:23:29Z</time>
      </trkpt>
      <trkpt lat="46.4428" lon="4.7815">
        <ele>299</ele>
        <time>2022-08-22T18:23:33Z</time>
      </trkpt>
      <trkpt lat="46.44256" lon="4.78136">
        <ele>302</ele>
        <time>2022-08-22T18:23:40Z</time>
      </trkpt>
      <trkpt lat="46.44241" lon="4.78131">
        <ele>303</ele>
        <time>2022-08-22T18:23:43Z</time>
      </trkpt>
      <trkpt lat="46.44226" lon="4.78126">
        <ele>304</ele>
        <time>2022-08-22T18:23:47Z</time>
      </trkpt>
      <trkpt lat="46.44179" lon="4.78122">
        <ele>308</ele>
        <time>2022-08-22T18:23:58Z</time>
      </trkpt>
      <trkpt lat="46.4414" lon="4.78115">
        <ele>311</ele>
        <time>2022-08-22T18:24:07Z</time>
      </trkpt>
      <trkpt lat="46.44083" lon="4.78089">
        <ele>315</ele>
        <time>2022-08-22T18:24:21Z</time>
      </trkpt>
      <trkpt lat="46.44062" lon="4.78079">
        <ele>315</ele>
        <time>2022-08-22T18:24:26Z</time>
      </trkpt>
      <trkpt lat="46.4405" lon="4.78057">
        <ele>317</ele>
        <time>2022-08-22T18:24:31Z</time>
      </trkpt>
      <trkpt lat="46.44042" lon="4.78036">
        <ele>318</ele>
        <time>2022-08-22T18:24:34Z</time>
      </trkpt>
      <trkpt lat="46.44009" lon="4.7803">
        <ele>318</ele>
        <time>2022-08-22T18:24:42Z</time>
      </trkpt>
      <trkpt lat="46.43977" lon="4.78035">
        <ele>318</ele>
        <time>2022-08-22T18:24:50Z</time>
      </trkpt>
      <trkpt lat="46.43843" lon="4.78039">
        <ele>321</ele>
        <time>2022-08-22T18:25:21Z</time>
      </trkpt>
      <trkpt lat="46.43797" lon="4.78037">
        <ele>325</ele>
        <time>2022-08-22T18:25:32Z</time>
      </trkpt>
      <trkpt lat="46.43776" lon="4.78027">
        <ele>328</ele>
        <time>2022-08-22T18:25:37Z</time>
      </trkpt>
      <trkpt lat="46.43769" lon="4.78009">
        <ele>331</ele>
        <time>2022-08-22T18:25:40Z</time>
      </trkpt>
      <trkpt lat="46.43775" lon="4.77951">
        <ele>336</ele>
        <time>2022-08-22T18:25:50Z</time>
      </trkpt>
      <trkpt lat="46.43786" lon="4.77877">
        <ele>340</ele>
        <time>2022-08-22T18:26:02Z</time>
      </trkpt>
      <trkpt lat="46.43805" lon="4.77762">
        <ele>345</ele>
        <time>2022-08-22T18:26:21Z</time>
      </trkpt>
      <trkpt lat="46.43807" lon="4.77741">
        <ele>346</ele>
        <time>2022-08-22T18:26:24Z</time>
      </trkpt>
      <trkpt lat="46.43729" lon="4.77725">
        <ele>352</ele>
        <time>2022-08-22T18:26:43Z</time>
      </trkpt>
      <trkpt lat="46.43699" lon="4.77715">
        <ele>354</ele>
        <time>2022-08-22T18:26:50Z</time>
      </trkpt>
      <trkpt lat="46.43626" lon="4.77687">
        <ele>358</ele>
        <time>2022-08-22T18:27:07Z</time>
      </trkpt>
      <trkpt lat="46.43591" lon="4.77662">
        <ele>359</ele>
        <time>2022-08-22T18:27:17Z</time>
      </trkpt>
      <trkpt lat="46.43473" lon="4.77579">
        <ele>360</ele>
        <time>2022-08-22T18:27:47Z</time>
      </trkpt>
      <trkpt lat="46.43428" lon="4.7764">
        <ele>357</ele>
        <time>2022-08-22T18:28:02Z</time>
      </trkpt>
      <trkpt lat="46.43372" lon="4.7764">
        <ele>355</ele>
        <time>2022-08-22T18:28:15Z</time>
      </trkpt>
      <trkpt lat="46.43331" lon="4.77651">
        <ele>353</ele>
        <time>2022-08-22T18:28:24Z</time>
      </trkpt>
      <trkpt lat="46.43302" lon="4.77687">
        <ele>351</ele>
        <time>2022-08-22T18:28:33Z</time>
      </trkpt>
      <trkpt lat="46.43202" lon="4.77762">
        <ele>346</ele>
        <time>2022-08-22T18:29:00Z</time>
      </trkpt>
      <trkpt lat="46.43175" lon="4.77786">
        <ele>344</ele>
        <time>2022-08-22T18:29:07Z</time>
      </trkpt>
      <trkpt lat="46.43173" lon="4.77838">
        <ele>339</ele>
        <time>2022-08-22T18:29:15Z</time>
      </trkpt>
      <trkpt lat="46.43169" lon="4.77904">
        <ele>333</ele>
        <time>2022-08-22T18:29:26Z</time>
      </trkpt>
      <trkpt lat="46.43152" lon="4.77904">
        <ele>333</ele>
        <time>2022-08-22T18:29:30Z</time>
      </trkpt>
      <trkpt lat="46.43136" lon="4.77885">
        <ele>335</ele>
        <time>2022-08-22T18:29:35Z</time>
      </trkpt>
      <trkpt lat="46.43097" lon="4.77856">
        <ele>338</ele>
        <time>2022-08-22T18:29:45Z</time>
      </trkpt>
      <trkpt lat="46.43052" lon="4.77849">
        <ele>338</ele>
        <time>2022-08-22T18:29:56Z</time>
      </trkpt>
      <trkpt lat="46.43016" lon="4.77856">
        <ele>337</ele>
        <time>2022-08-22T18:30:04Z</time>
      </trkpt>
      <trkpt lat="46.42984" lon="4.77871">
        <ele>335</ele>
        <time>2022-08-22T18:30:12Z</time>
      </trkpt>
      <trkpt lat="46.42959" lon="4.77875">
        <ele>335</ele>
        <time>2022-08-22T18:30:18Z</time>
      </trkpt>
      <trkpt lat="46.42908" lon="4.77885">
        <ele>334</ele>
        <time>2022-08-22T18:30:30Z</time>
      </trkpt>
      <trkpt lat="46.42817" lon="4.77886">
        <ele>331</ele>
        <time>2022-08-22T18:30:51Z</time>
      </trkpt>
      <trkpt lat="46.42762" lon="4.77875">
        <ele>327</ele>
        <time>2022-08-22T18:31:04Z</time>
      </trkpt>
      <trkpt lat="46.42732" lon="4.77847">
        <ele>325</ele>
        <time>2022-08-22T18:31:12Z</time>
      </trkpt>
      <trkpt lat="46.42715" lon="4.77808">
        <ele>324</ele>
        <time>2022-08-22T18:31:20Z</time>
      </trkpt>
      <trkpt lat="46.42692" lon="4.77755">
        <ele>323</ele>
        <time>2022-08-22T18:31:30Z</time>
      </trkpt>
      <trkpt lat="46.42665" lon="4.77716">
        <ele>321</ele>
        <time>2022-08-22T18:31:39Z</time>
      </trkpt>
      <trkpt lat="46.42648" lon="4.77637">
        <ele>321</ele>
        <time>2022-08-22T18:31:52Z</time>
      </trkpt>
      <trkpt lat="46.42631" lon="4.77583">
        <ele>319</ele>
        <time>2022-08-22T18:32:02Z</time>
      </trkpt>
      <trkpt lat="46.4261" lon="4.77558">
        <ele>315</ele>
        <time>2022-08-22T18:32:08Z</time>
      </trkpt>
      <trkpt lat="46.42569" lon="4.77534">
        <ele>308</ele>
        <time>2022-08-22T18:32:18Z</time>
      </trkpt>
      <trkpt lat="46.42542" lon="4.77514">
        <ele>302</ele>
        <time>2022-08-22T18:32:25Z</time>
      </trkpt>
      <trkpt lat="46.42555" lon="4.77596">
        <ele>304</ele>
        <time>2022-08-22T18:32:39Z</time>
      </trkpt>
      <trkpt lat="46.42629" lon="4.77719">
        <ele>311</ele>
        <time>2022-08-22T18:33:05Z</time>
      </trkpt>
      <trkpt lat="46.42671" lon="4.77853">
        <ele>310</ele>
        <time>2022-08-22T18:33:29Z</time>
      </trkpt>
      <trkpt lat="46.42716" lon="4.77934">
        <ele>309</ele>
        <time>2022-08-22T18:33:46Z</time>
      </trkpt>
      <trkpt lat="46.42772" lon="4.77994">
        <ele>307</ele>
        <time>2022-08-22T18:34:02Z</time>
      </trkpt>
      <trkpt lat="46.42771" lon="4.78027">
        <ele>300</ele>
        <time>2022-08-22T18:34:07Z</time>
      </trkpt>
      <trkpt lat="46.42872" lon="4.78054">
        <ele>304</ele>
        <time>2022-08-22T18:34:31Z</time>
      </trkpt>
      <trkpt lat="46.42875" lon="4.78097">
        <ele>294</ele>
        <time>2022-08-22T18:34:38Z</time>
      </trkpt>
      <trkpt lat="46.42888" lon="4.78176">
        <ele>279</ele>
        <time>2022-08-22T18:34:51Z</time>
      </trkpt>
      <trkpt lat="46.42837" lon="4.78412">
        <ele>250</ele>
        <time>2022-08-22T18:35:31Z</time>
      </trkpt>
      <trkpt lat="46.42835" lon="4.78412">
        <ele>250</ele>
        <time>2022-08-22T18:35:32Z</time>
      </trkpt>
      <trkpt lat="46.42813" lon="4.78433">
        <ele>249</ele>
        <time>2022-08-22T18:35:38Z</time>
      </trkpt>
      <trkpt lat="46.42797" lon="4.78444">
        <ele>248</ele>
        <time>2022-08-22T18:35:42Z</time>
      </trkpt>
      <trkpt lat="46.42772" lon="4.78428">
        <ele>248</ele>
        <time>2022-08-22T18:35:48Z</time>
      </trkpt>
      <trkpt lat="46.42753" lon="4.78422">
        <ele>248</ele>
        <time>2022-08-22T18:35:53Z</time>
      </trkpt>
      <trkpt lat="46.42738" lon="4.78432">
        <ele>247</ele>
        <time>2022-08-22T18:35:57Z</time>
      </trkpt>
      <trkpt lat="46.42731" lon="4.7846">
        <ele>244</ele>
        <time>2022-08-22T18:36:01Z</time>
      </trkpt>
      <trkpt lat="46.42705" lon="4.78523">
        <ele>240</ele>
        <time>2022-08-22T18:36:13Z</time>
      </trkpt>
      <trkpt lat="46.42691" lon="4.78554">
        <ele>239</ele>
        <time>2022-08-22T18:36:19Z</time>
      </trkpt>
      <trkpt lat="46.42677" lon="4.78597">
        <ele>238</ele>
        <time>2022-08-22T18:36:27Z</time>
      </trkpt>
      <trkpt lat="46.42668" lon="4.78628">
        <ele>238</ele>
        <time>2022-08-22T18:36:32Z</time>
      </trkpt>
      <trkpt lat="46.42637" lon="4.78759">
        <ele>236</ele>
        <time>2022-08-22T18:36:55Z</time>
      </trkpt>
      <trkpt lat="46.42641" lon="4.78789">
        <ele>234</ele>
        <time>2022-08-22T18:37:00Z</time>
      </trkpt>
      <trkpt lat="46.42645" lon="4.78887">
        <ele>231</ele>
        <time>2022-08-22T18:37:15Z</time>
      </trkpt>
      <trkpt lat="46.42648" lon="4.78935">
        <ele>230</ele>
        <time>2022-08-22T18:37:23Z</time>
      </trkpt>
      <trkpt lat="46.42648" lon="4.78976">
        <ele>230</ele>
        <time>2022-08-22T18:37:30Z</time>
      </trkpt>
      <trkpt lat="46.4265" lon="4.7902">
        <ele>229</ele>
        <time>2022-08-22T18:37:37Z</time>
      </trkpt>
      <trkpt lat="46.42662" lon="4.79106">
        <ele>228</ele>
        <time>2022-08-22T18:37:51Z</time>
      </trkpt>
      <trkpt lat="46.42662" lon="4.79268">
        <ele>229</ele>
        <time>2022-08-22T18:38:17Z</time>
      </trkpt>
      <trkpt lat="46.42664" lon="4.7932">
        <ele>231</ele>
        <time>2022-08-22T18:38:25Z</time>
      </trkpt>
      <trkpt lat="46.42673" lon="4.79413">
        <ele>233</ele>
        <time>2022-08-22T18:38:40Z</time>
      </trkpt>
      <trkpt lat="46.42673" lon="4.79446">
        <ele>232</ele>
        <time>2022-08-22T18:38:46Z</time>
      </trkpt>
      <trkpt lat="46.4267" lon="4.7946">
        <ele>231</ele>
        <time>2022-08-22T18:38:48Z</time>
      </trkpt>
      <trkpt lat="46.42577" lon="4.79604">
        <ele>229</ele>
        <time>2022-08-22T18:39:20Z</time>
      </trkpt>
      <trkpt lat="46.4254" lon="4.79683">
        <ele>227</ele>
        <time>2022-08-22T18:39:35Z</time>
      </trkpt>
      <trkpt lat="46.42504" lon="4.79772">
        <ele>229</ele>
        <time>2022-08-22T18:39:52Z</time>
      </trkpt>
      <trkpt lat="46.42492" lon="4.7981">
        <ele>230</ele>
        <time>2022-08-22T18:39:59Z</time>
      </trkpt>
      <trkpt lat="46.42413" lon="4.80112">
        <ele>242</ele>
        <time>2022-08-22T18:40:51Z</time>
      </trkpt>
      <trkpt lat="46.42405" lon="4.80136">
        <ele>243</ele>
        <time>2022-08-22T18:40:55Z</time>
      </trkpt>
      <trkpt lat="46.42398" lon="4.8021">
        <ele>247</ele>
        <time>2022-08-22T18:41:07Z</time>
      </trkpt>
      <trkpt lat="46.4239" lon="4.8029">
        <ele>250</ele>
        <time>2022-08-22T18:41:20Z</time>
      </trkpt>
      <trkpt lat="46.42383" lon="4.80363">
        <ele>250</ele>
        <time>2022-08-22T18:41:32Z</time>
      </trkpt>
      <trkpt lat="46.42371" lon="4.805">
        <ele>248</ele>
        <time>2022-08-22T18:41:54Z</time>
      </trkpt>
      <trkpt lat="46.42186" lon="4.80606">
        <ele>230</ele>
        <time>2022-08-22T18:42:41Z</time>
      </trkpt>
      <trkpt lat="46.42084" lon="4.80672">
        <ele>225</ele>
        <time>2022-08-22T18:43:07Z</time>
      </trkpt>
      <trkpt lat="46.42016" lon="4.80838">
        <ele>219</ele>
        <time>2022-08-22T18:43:38Z</time>
      </trkpt>
      <trkpt lat="46.41999" lon="4.80849">
        <ele>218</ele>
        <time>2022-08-22T18:43:42Z</time>
      </trkpt>
      <trkpt lat="46.41949" lon="4.80849">
        <ele>217</ele>
        <time>2022-08-22T18:43:54Z</time>
      </trkpt>
      <trkpt lat="46.41917" lon="4.80854">
        <ele>217</ele>
        <time>2022-08-22T18:44:01Z</time>
      </trkpt>
      <trkpt lat="46.41906" lon="4.80859">
        <ele>216</ele>
        <time>2022-08-22T18:44:04Z</time>
      </trkpt>
      <trkpt lat="46.41894" lon="4.80871">
        <ele>216</ele>
        <time>2022-08-22T18:44:07Z</time>
      </trkpt>
      <trkpt lat="46.41882" lon="4.80921">
        <ele>214</ele>
        <time>2022-08-22T18:44:16Z</time>
      </trkpt>
      <trkpt lat="46.41853" lon="4.81012">
        <ele>217</ele>
        <time>2022-08-22T18:44:32Z</time>
      </trkpt>
      <trkpt lat="46.41844" lon="4.8106">
        <ele>222</ele>
        <time>2022-08-22T18:44:40Z</time>
      </trkpt>
      <trkpt lat="46.41831" lon="4.81082">
        <ele>223</ele>
        <time>2022-08-22T18:44:45Z</time>
      </trkpt>
      <trkpt lat="46.41817" lon="4.81093">
        <ele>226</ele>
        <time>2022-08-22T18:44:48Z</time>
      </trkpt>
      <trkpt lat="46.41811" lon="4.81114">
        <ele>229</ele>
        <time>2022-08-22T18:44:52Z</time>
      </trkpt>
      <trkpt lat="46.41814" lon="4.81128">
        <ele>230</ele>
        <time>2022-08-22T18:44:54Z</time>
      </trkpt>
      <trkpt lat="46.41827" lon="4.81153">
        <ele>230</ele>
        <time>2022-08-22T18:44:59Z</time>
      </trkpt>
      <trkpt lat="46.41809" lon="4.81158">
        <ele>233</ele>
        <time>2022-08-22T18:45:04Z</time>
      </trkpt>
      <trkpt lat="46.41785" lon="4.81149">
        <ele>235</ele>
        <time>2022-08-22T18:45:10Z</time>
      </trkpt>
      <trkpt lat="46.41751" lon="4.81101">
        <ele>236</ele>
        <time>2022-08-22T18:45:21Z</time>
      </trkpt>
      <trkpt lat="46.417" lon="4.81176">
        <ele>247</ele>
        <time>2022-08-22T18:45:38Z</time>
      </trkpt>
      <trkpt lat="46.41679" lon="4.81155">
        <ele>249</ele>
        <time>2022-08-22T18:45:44Z</time>
      </trkpt>
      <trkpt lat="46.41652" lon="4.81115">
        <ele>250</ele>
        <time>2022-08-22T18:45:53Z</time>
      </trkpt>
      <trkpt lat="46.41651" lon="4.81107">
        <ele>250</ele>
        <time>2022-08-22T18:45:54Z</time>
      </trkpt>
      <trkpt lat="46.41639" lon="4.81043">
        <ele>245</ele>
        <time>2022-08-22T18:46:05Z</time>
      </trkpt>
      <trkpt lat="46.41633" lon="4.8103">
        <ele>244</ele>
        <time>2022-08-22T18:46:07Z</time>
      </trkpt>
      <trkpt lat="46.41625" lon="4.81023">
        <ele>245</ele>
        <time>2022-08-22T18:46:09Z</time>
      </trkpt>
      <trkpt lat="46.41614" lon="4.81018">
        <ele>246</ele>
        <time>2022-08-22T18:46:12Z</time>
      </trkpt>
      <trkpt lat="46.41569" lon="4.81006">
        <ele>251</ele>
        <time>2022-08-22T18:46:23Z</time>
      </trkpt>
      <trkpt lat="46.41547" lon="4.80997">
        <ele>251</ele>
        <time>2022-08-22T18:46:28Z</time>
      </trkpt>
      <trkpt lat="46.41513" lon="4.80973">
        <ele>248</ele>
        <time>2022-08-22T18:46:37Z</time>
      </trkpt>
      <trkpt lat="46.41498" lon="4.80966">
        <ele>248</ele>
        <time>2022-08-22T18:46:40Z</time>
      </trkpt>
      <trkpt lat="46.41481" lon="4.80953">
        <ele>248</ele>
        <time>2022-08-22T18:46:45Z</time>
      </trkpt>
      <trkpt lat="46.41454" lon="4.80942">
        <ele>249</ele>
        <time>2022-08-22T18:46:51Z</time>
      </trkpt>
      <trkpt lat="46.41386" lon="4.80918">
        <ele>255</ele>
        <time>2022-08-22T18:47:08Z</time>
      </trkpt>
      <trkpt lat="46.41306" lon="4.80855">
        <ele>259</ele>
        <time>2022-08-22T18:47:29Z</time>
      </trkpt>
      <trkpt lat="46.41257" lon="4.80828">
        <ele>267</ele>
        <time>2022-08-22T18:47:41Z</time>
      </trkpt>
      <trkpt lat="46.41247" lon="4.80819">
        <ele>267</ele>
        <time>2022-08-22T18:47:44Z</time>
      </trkpt>
      <trkpt lat="46.41233" lon="4.80817">
        <ele>268</ele>
        <time>2022-08-22T18:47:47Z</time>
      </trkpt>
      <trkpt lat="46.41203" lon="4.80797">
        <ele>271</ele>
        <time>2022-08-22T18:47:55Z</time>
      </trkpt>
      <trkpt lat="46.4087" lon="4.80601">
        <ele>287</ele>
        <time>2022-08-22T18:49:19Z</time>
      </trkpt>
      <trkpt lat="46.40718" lon="4.80512">
        <ele>277</ele>
        <time>2022-08-22T18:49:57Z</time>
      </trkpt>
      <trkpt lat="46.40687" lon="4.80489">
        <ele>274</ele>
        <time>2022-08-22T18:50:05Z</time>
      </trkpt>
      <trkpt lat="46.40639" lon="4.80541">
        <ele>265</ele>
        <time>2022-08-22T18:50:19Z</time>
      </trkpt>
      <trkpt lat="46.40622" lon="4.80574">
        <ele>261</ele>
        <time>2022-08-22T18:50:26Z</time>
      </trkpt>
      <trkpt lat="46.40592" lon="4.8071">
        <ele>247</ele>
        <time>2022-08-22T18:50:49Z</time>
      </trkpt>
      <trkpt lat="46.4051" lon="4.80615">
        <ele>242</ele>
        <time>2022-08-22T18:51:14Z</time>
      </trkpt>
      <trkpt lat="46.40447" lon="4.80522">
        <ele>238</ele>
        <time>2022-08-22T18:51:35Z</time>
      </trkpt>
      <trkpt lat="46.40442" lon="4.80522">
        <ele>237</ele>
        <time>2022-08-22T18:51:36Z</time>
      </trkpt>
      <trkpt lat="46.40441" lon="4.80521">
        <ele>237</ele>
        <time>2022-08-22T18:51:36Z</time>
      </trkpt>
      <trkpt lat="46.40438" lon="4.80539">
        <ele>236</ele>
        <time>2022-08-22T18:51:39Z</time>
      </trkpt>
      <trkpt lat="46.4044" lon="4.80582">
        <ele>235</ele>
        <time>2022-08-22T18:51:46Z</time>
      </trkpt>
      <trkpt lat="46.40408" lon="4.80677">
        <ele>226</ele>
        <time>2022-08-22T18:52:03Z</time>
      </trkpt>
      <trkpt lat="46.4039" lon="4.8074">
        <ele>222</ele>
        <time>2022-08-22T18:52:14Z</time>
      </trkpt>
      <trkpt lat="46.40383" lon="4.80772">
        <ele>221</ele>
        <time>2022-08-22T18:52:19Z</time>
      </trkpt>
      <trkpt lat="46.40406" lon="4.80785">
        <ele>223</ele>
        <time>2022-08-22T18:52:25Z</time>
      </trkpt>
      <trkpt lat="46.40387" lon="4.80903">
        <ele>219</ele>
        <time>2022-08-22T18:52:45Z</time>
      </trkpt>
      <trkpt lat="46.40369" lon="4.80975">
        <ele>218</ele>
        <time>2022-08-22T18:52:57Z</time>
      </trkpt>
      <trkpt lat="46.40348" lon="4.81065">
        <ele>217</ele>
        <time>2022-08-22T18:53:12Z</time>
      </trkpt>
      <trkpt lat="46.40321" lon="4.81139">
        <ele>216</ele>
        <time>2022-08-22T18:53:26Z</time>
      </trkpt>
      <trkpt lat="46.40102" lon="4.81035">
        <ele>210</ele>
        <time>2022-08-22T18:54:20Z</time>
      </trkpt>
      <trkpt lat="46.40054" lon="4.81206">
        <ele>210</ele>
        <time>2022-08-22T18:54:49Z</time>
      </trkpt>
      <trkpt lat="46.39954" lon="4.8156">
        <ele>208</ele>
        <time>2022-08-22T18:55:51Z</time>
      </trkpt>
      <trkpt lat="46.39704" lon="4.81469">
        <ele>203</ele>
        <time>2022-08-22T18:56:51Z</time>
      </trkpt>
      <trkpt lat="46.39578" lon="4.81423">
        <ele>196</ele>
        <time>2022-08-22T18:57:21Z</time>
      </trkpt>
      <trkpt lat="46.39559" lon="4.81464">
        <ele>196</ele>
        <time>2022-08-22T18:57:29Z</time>
      </trkpt>
      <trkpt lat="46.39552" lon="4.81453">
        <ele>196</ele>
        <time>2022-08-22T18:57:32Z</time>
      </trkpt>
      <trkpt lat="46.39542" lon="4.81426">
        <ele>196</ele>
        <time>2022-08-22T18:57:37Z</time>
      </trkpt>
      <trkpt lat="46.39535" lon="4.81417">
        <ele>195</ele>
        <time>2022-08-22T18:57:39Z</time>
      </trkpt>
      <trkpt lat="46.39507" lon="4.81396">
        <ele>195</ele>
        <time>2022-08-22T18:57:46Z</time>
      </trkpt>
      <trkpt lat="46.39502" lon="4.81389">
        <ele>195</ele>
        <time>2022-08-22T18:57:48Z</time>
      </trkpt>
      <trkpt lat="46.39481" lon="4.81352">
        <ele>195</ele>
        <time>2022-08-22T18:57:56Z</time>
      </trkpt>
      <trkpt lat="46.39424" lon="4.81219">
        <ele>194</ele>
        <time>2022-08-22T18:58:21Z</time>
      </trkpt>
      <trkpt lat="46.39347" lon="4.81036">
        <ele>200</ele>
        <time>2022-08-22T18:58:55Z</time>
      </trkpt>
      <trkpt lat="46.39379" lon="4.81022">
        <ele>199</ele>
        <time>2022-08-22T18:59:03Z</time>
      </trkpt>
      <trkpt lat="46.39406" lon="4.81006">
        <ele>198</ele>
        <time>2022-08-22T18:59:10Z</time>
      </trkpt>
      <trkpt lat="46.39463" lon="4.8096">
        <ele>197</ele>
        <time>2022-08-22T18:59:25Z</time>
      </trkpt>
      <trkpt lat="46.39501" lon="4.80915">
        <ele>197</ele>
        <time>2022-08-22T18:59:37Z</time>
      </trkpt>
      <trkpt lat="46.39531" lon="4.80894">
        <ele>197</ele>
        <time>2022-08-22T18:59:44Z</time>
      </trkpt>
      <trkpt lat="46.39557" lon="4.80872">
        <ele>198</ele>
        <time>2022-08-22T18:59:51Z</time>
      </trkpt>
      <trkpt lat="46.39564" lon="4.80861">
        <ele>198</ele>
        <time>2022-08-22T18:59:54Z</time>
      </trkpt>
      <trkpt lat="46.39572" lon="4.80843">
        <ele>199</ele>
        <time>2022-08-22T18:59:57Z</time>
      </trkpt>
      <trkpt lat="46.39581" lon="4.80812">
        <ele>200</ele>
        <time>2022-08-22T19:00:03Z</time>
      </trkpt>
      <trkpt lat="46.3959" lon="4.8076">
        <ele>201</ele>
        <time>2022-08-22T19:00:11Z</time>
      </trkpt>
      <trkpt lat="46.39585" lon="4.80738">
        <ele>202</ele>
        <time>2022-08-22T19:00:15Z</time>
      </trkpt>
      <trkpt lat="46.39576" lon="4.8074">
        <ele>203</ele>
        <time>2022-08-22T19:00:17Z</time>
      </trkpt>
      <trkpt lat="46.39521" lon="4.80694">
        <ele>213</ele>
        <time>2022-08-22T19:00:32Z</time>
      </trkpt>
      <trkpt lat="46.39504" lon="4.80686">
        <ele>216</ele>
        <time>2022-08-22T19:00:36Z</time>
      </trkpt>
      <trkpt lat="46.39475" lon="4.80679">
        <ele>218</ele>
        <time>2022-08-22T19:00:43Z</time>
      </trkpt>
      <trkpt lat="46.39447" lon="4.80665">
        <ele>220</ele>
        <time>2022-08-22T19:00:50Z</time>
      </trkpt>
      <trkpt lat="46.39429" lon="4.80654">
        <ele>221</ele>
        <time>2022-08-22T19:00:55Z</time>
      </trkpt>
      <trkpt lat="46.39417" lon="4.80637">
        <ele>223</ele>
        <time>2022-08-22T19:00:58Z</time>
      </trkpt>
      <trkpt lat="46.39417" lon="4.80631">
        <ele>223</ele>
        <time>2022-08-22T19:00:59Z</time>
      </trkpt>
      <trkpt lat="46.39413" lon="4.80607">
        <ele>226</ele>
        <time>2022-08-22T19:01:03Z</time>
      </trkpt>
      <trkpt lat="46.39414" lon="4.80594">
        <ele>227</ele>
        <time>2022-08-22T19:01:06Z</time>
      </trkpt>
      <trkpt lat="46.39425" lon="4.80563">
        <ele>228</ele>
        <time>2022-08-22T19:01:11Z</time>
      </trkpt>
      <trkpt lat="46.39436" lon="4.8053">
        <ele>228</ele>
        <time>2022-08-22T19:01:17Z</time>
      </trkpt>
      <trkpt lat="46.39448" lon="4.80528">
        <ele>228</ele>
        <time>2022-08-22T19:01:20Z</time>
      </trkpt>
      <trkpt lat="46.39432" lon="4.80462">
        <ele>230</ele>
        <time>2022-08-22T19:01:31Z</time>
      </trkpt>
      <trkpt lat="46.39419" lon="4.80357">
        <ele>236</ele>
        <time>2022-08-22T19:01:48Z</time>
      </trkpt>
      <trkpt lat="46.39403" lon="4.8029">
        <ele>242</ele>
        <time>2022-08-22T19:02:00Z</time>
      </trkpt>
      <trkpt lat="46.39388" lon="4.80252">
        <ele>245</ele>
        <time>2022-08-22T19:02:07Z</time>
      </trkpt>
      <trkpt lat="46.39325" lon="4.80158">
        <ele>258</ele>
        <time>2022-08-22T19:02:28Z</time>
      </trkpt>
      <trkpt lat="46.39312" lon="4.80145">
        <ele>260</ele>
        <time>2022-08-22T19:02:32Z</time>
      </trkpt>
      <trkpt lat="46.39248" lon="4.8008">
        <ele>267</ele>
        <time>2022-08-22T19:02:50Z</time>
      </trkpt>
      <trkpt lat="46.39232" lon="4.80053">
        <ele>268</ele>
        <time>2022-08-22T19:02:56Z</time>
      </trkpt>
      <trkpt lat="46.39214" lon="4.80013">
        <ele>270</ele>
        <time>2022-08-22T19:03:03Z</time>
      </trkpt>
      <trkpt lat="46.39194" lon="4.79985">
        <ele>270</ele>
        <time>2022-08-22T19:03:10Z</time>
      </trkpt>
      <trkpt lat="46.39186" lon="4.79979">
        <ele>270</ele>
        <time>2022-08-22T19:03:12Z</time>
      </trkpt>
      <trkpt lat="46.39139" lon="4.79957">
        <ele>271</ele>
        <time>2022-08-22T19:03:23Z</time>
      </trkpt>
      <trkpt lat="46.39115" lon="4.79956">
        <ele>272</ele>
        <time>2022-08-22T19:03:29Z</time>
      </trkpt>
      <trkpt lat="46.39098" lon="4.79951">
        <ele>272</ele>
        <time>2022-08-22T19:03:33Z</time>
      </trkpt>
      <trkpt lat="46.39082" lon="4.79942">
        <ele>273</ele>
        <time>2022-08-22T19:03:37Z</time>
      </trkpt>
      <trkpt lat="46.39071" lon="4.79925">
        <ele>273</ele>
        <time>2022-08-22T19:03:41Z</time>
      </trkpt>
      <trkpt lat="46.39061" lon="4.79916">
        <ele>274</ele>
        <time>2022-08-22T19:03:44Z</time>
      </trkpt>
      <trkpt lat="46.39047" lon="4.79908">
        <ele>273</ele>
        <time>2022-08-22T19:03:47Z</time>
      </trkpt>
      <trkpt lat="46.38981" lon="4.79888">
        <ele>275</ele>
        <time>2022-08-22T19:04:03Z</time>
      </trkpt>
      <trkpt lat="46.38922" lon="4.79866">
        <ele>277</ele>
        <time>2022-08-22T19:04:17Z</time>
      </trkpt>
      <trkpt lat="46.38867" lon="4.79855">
        <ele>279</ele>
        <time>2022-08-22T19:04:30Z</time>
      </trkpt>
      <trkpt lat="46.38763" lon="4.79827">
        <ele>286</ele>
        <time>2022-08-22T19:04:55Z</time>
      </trkpt>
      <trkpt lat="46.38747" lon="4.79831">
        <ele>288</ele>
        <time>2022-08-22T19:04:59Z</time>
      </trkpt>
      <trkpt lat="46.38676" lon="4.79849">
        <ele>292</ele>
        <time>2022-08-22T19:05:15Z</time>
      </trkpt>
      <trkpt lat="46.3868" lon="4.79797">
        <ele>291</ele>
        <time>2022-08-22T19:05:24Z</time>
      </trkpt>
      <trkpt lat="46.38698" lon="4.79762">
        <ele>288</ele>
        <time>2022-08-22T19:05:31Z</time>
      </trkpt>
      <trkpt lat="46.38704" lon="4.79726">
        <ele>281</ele>
        <time>2022-08-22T19:05:37Z</time>
      </trkpt>
      <trkpt lat="46.38781" lon="4.79735">
        <ele>275</ele>
        <time>2022-08-22T19:05:55Z</time>
      </trkpt>
      <trkpt lat="46.38821" lon="4.79761">
        <ele>273</ele>
        <time>2022-08-22T19:06:05Z</time>
      </trkpt>
      <trkpt lat="46.38861" lon="4.79763">
        <ele>270</ele>
        <time>2022-08-22T19:06:14Z</time>
      </trkpt>
      <trkpt lat="46.38912" lon="4.79829">
        <ele>276</ele>
        <time>2022-08-22T19:06:30Z</time>
      </trkpt>
      <trkpt lat="46.38988" lon="4.79843">
        <ele>271</ele>
        <time>2022-08-22T19:06:48Z</time>
      </trkpt>
      <trkpt lat="46.39125" lon="4.79896">
        <ele>268</ele>
        <time>2022-08-22T19:07:21Z</time>
      </trkpt>
      <trkpt lat="46.39091" lon="4.79858">
        <ele>265</ele>
        <time>2022-08-22T19:07:31Z</time>
      </trkpt>
      <trkpt lat="46.39007" lon="4.79835">
        <ele>269</ele>
        <time>2022-08-22T19:07:51Z</time>
      </trkpt>
      <trkpt lat="46.38979" lon="4.7981">
        <ele>267</ele>
        <time>2022-08-22T19:07:59Z</time>
      </trkpt>
      <trkpt lat="46.38952" lon="4.79773">
        <ele>264</ele>
        <time>2022-08-22T19:08:08Z</time>
      </trkpt>
      <trkpt lat="46.38898" lon="4.79719">
        <ele>259</ele>
        <time>2022-08-22T19:08:23Z</time>
      </trkpt>
      <trkpt lat="46.38747" lon="4.79652">
        <ele>260</ele>
        <time>2022-08-22T19:09:00Z</time>
      </trkpt>
      <trkpt lat="46.38481" lon="4.79562">
        <ele>253</ele>
        <time>2022-08-22T19:10:04Z</time>
      </trkpt>
      <trkpt lat="46.38471" lon="4.79524">
        <ele>245</ele>
        <time>2022-08-22T19:10:10Z</time>
      </trkpt>
      <trkpt lat="46.3846" lon="4.79478">
        <ele>236</ele>
        <time>2022-08-22T19:10:18Z</time>
      </trkpt>
      <trkpt lat="46.38332" lon="4.79485">
        <ele>241</ele>
        <time>2022-08-22T19:10:48Z</time>
      </trkpt>
      <trkpt lat="46.38278" lon="4.79501">
        <ele>238</ele>
        <time>2022-08-22T19:11:01Z</time>
      </trkpt>
      <trkpt lat="46.38227" lon="4.79524">
        <ele>239</ele>
        <time>2022-08-22T19:11:13Z</time>
      </trkpt>
      <trkpt lat="46.38184" lon="4.79542">
        <ele>241</ele>
        <time>2022-08-22T19:11:24Z</time>
      </trkpt>
      <trkpt lat="46.38151" lon="4.79566">
        <ele>242</ele>
        <time>2022-08-22T19:11:32Z</time>
      </trkpt>
      <trkpt lat="46.38092" lon="4.79624">
        <ele>239</ele>
        <time>2022-08-22T19:11:49Z</time>
      </trkpt>
      <trkpt lat="46.38084" lon="4.79666">
        <ele>242</ele>
        <time>2022-08-22T19:11:56Z</time>
      </trkpt>
      <trkpt lat="46.38084" lon="4.79688">
        <ele>242</ele>
        <time>2022-08-22T19:12:00Z</time>
      </trkpt>
      <trkpt lat="46.38093" lon="4.79777">
        <ele>244</ele>
        <time>2022-08-22T19:12:14Z</time>
      </trkpt>
      <trkpt lat="46.38093" lon="4.79802">
        <ele>245</ele>
        <time>2022-08-22T19:12:18Z</time>
      </trkpt>
      <trkpt lat="46.38086" lon="4.7992">
        <ele>242</ele>
        <time>2022-08-22T19:12:37Z</time>
      </trkpt>
      <trkpt lat="46.38082" lon="4.79937">
        <ele>242</ele>
        <time>2022-08-22T19:12:40Z</time>
      </trkpt>
      <trkpt lat="46.38077" lon="4.79947">
        <ele>242</ele>
        <time>2022-08-22T19:12:42Z</time>
      </trkpt>
      <trkpt lat="46.38065" lon="4.79946">
        <ele>243</ele>
        <time>2022-08-22T19:12:45Z</time>
      </trkpt>
      <trkpt lat="46.3803" lon="4.79929">
        <ele>243</ele>
        <time>2022-08-22T19:12:54Z</time>
      </trkpt>
      <trkpt lat="46.38015" lon="4.79942">
        <ele>243</ele>
        <time>2022-08-22T19:12:58Z</time>
      </trkpt>
      <trkpt lat="46.37999" lon="4.79961">
        <ele>244</ele>
        <time>2022-08-22T19:13:02Z</time>
      </trkpt>
      <trkpt lat="46.37992" lon="4.79976">
        <ele>244</ele>
        <time>2022-08-22T19:13:05Z</time>
      </trkpt>
      <trkpt lat="46.37988" lon="4.79988">
        <ele>244</ele>
        <time>2022-08-22T19:13:08Z</time>
      </trkpt>
      <trkpt lat="46.37985" lon="4.80005">
        <ele>244</ele>
        <time>2022-08-22T19:13:10Z</time>
      </trkpt>
      <trkpt lat="46.37984" lon="4.80028">
        <ele>244</ele>
        <time>2022-08-22T19:13:14Z</time>
      </trkpt>
      <trkpt lat="46.3796" lon="4.80016">
        <ele>246</ele>
        <time>2022-08-22T19:13:20Z</time>
      </trkpt>
      <trkpt lat="46.37917" lon="4.79992">
        <ele>250</ele>
        <time>2022-08-22T19:13:31Z</time>
      </trkpt>
      <trkpt lat="46.37906" lon="4.79978">
        <ele>251</ele>
        <time>2022-08-22T19:13:34Z</time>
      </trkpt>
      <trkpt lat="46.37903" lon="4.79968">
        <ele>252</ele>
        <time>2022-08-22T19:13:36Z</time>
      </trkpt>
      <trkpt lat="46.37899" lon="4.79957">
        <ele>253</ele>
        <time>2022-08-22T19:13:38Z</time>
      </trkpt>
      <trkpt lat="46.379" lon="4.79929">
        <ele>254</ele>
        <time>2022-08-22T19:13:42Z</time>
      </trkpt>
      <trkpt lat="46.37898" lon="4.79913">
        <ele>255</ele>
        <time>2022-08-22T19:13:45Z</time>
      </trkpt>
      <trkpt lat="46.37893" lon="4.79908">
        <ele>255</ele>
        <time>2022-08-22T19:13:46Z</time>
      </trkpt>
      <trkpt lat="46.37875" lon="4.79909">
        <ele>256</ele>
        <time>2022-08-22T19:13:51Z</time>
      </trkpt>
      <trkpt lat="46.37796" lon="4.79935">
        <ele>258</ele>
        <time>2022-08-22T19:14:10Z</time>
      </trkpt>
      <trkpt lat="46.37765" lon="4.79957">
        <ele>258</ele>
        <time>2022-08-22T19:14:18Z</time>
      </trkpt>
      <trkpt lat="46.37765" lon="4.79919">
        <ele>259</ele>
        <time>2022-08-22T19:14:24Z</time>
      </trkpt>
      <trkpt lat="46.37771" lon="4.79835">
        <ele>264</ele>
        <time>2022-08-22T19:14:37Z</time>
      </trkpt>
      <trkpt lat="46.37775" lon="4.7978">
        <ele>269</ele>
        <time>2022-08-22T19:14:46Z</time>
      </trkpt>
      <trkpt lat="46.37775" lon="4.79769">
        <ele>270</ele>
        <time>2022-08-22T19:14:48Z</time>
      </trkpt>
      <trkpt lat="46.37768" lon="4.7976">
        <ele>271</ele>
        <time>2022-08-22T19:14:50Z</time>
      </trkpt>
      <trkpt lat="46.37737" lon="4.79755">
        <ele>272</ele>
        <time>2022-08-22T19:14:58Z</time>
      </trkpt>
      <trkpt lat="46.37699" lon="4.79737">
        <ele>277</ele>
        <time>2022-08-22T19:15:07Z</time>
      </trkpt>
      <trkpt lat="46.37649" lon="4.79716">
        <ele>281</ele>
        <time>2022-08-22T19:15:19Z</time>
      </trkpt>
      <trkpt lat="46.37647" lon="4.79711">
        <ele>281</ele>
        <time>2022-08-22T19:15:20Z</time>
      </trkpt>
      <trkpt lat="46.37633" lon="4.79691">
        <ele>282</ele>
        <time>2022-08-22T19:15:25Z</time>
      </trkpt>
      <trkpt lat="46.37611" lon="4.79677">
        <ele>282</ele>
        <time>2022-08-22T19:15:30Z</time>
      </trkpt>
      <trkpt lat="46.37582" lon="4.79668">
        <ele>281</ele>
        <time>2022-08-22T19:15:37Z</time>
      </trkpt>
      <trkpt lat="46.37559" lon="4.79663">
        <ele>282</ele>
        <time>2022-08-22T19:15:43Z</time>
      </trkpt>
      <trkpt lat="46.37532" lon="4.7966">
        <ele>282</ele>
        <time>2022-08-22T19:15:49Z</time>
      </trkpt>
      <trkpt lat="46.37466" lon="4.79657">
        <ele>284</ele>
        <time>2022-08-22T19:16:04Z</time>
      </trkpt>
      <trkpt lat="46.37466" lon="4.79657">
        <ele>284</ele>
        <time>2022-08-22T19:16:04Z</time>
      </trkpt>
      <trkpt lat="46.37481" lon="4.79589">
        <ele>291</ele>
        <time>2022-08-22T19:16:16Z</time>
      </trkpt>
      <trkpt lat="46.37489" lon="4.79573">
        <ele>293</ele>
        <time>2022-08-22T19:16:19Z</time>
      </trkpt>
      <trkpt lat="46.37501" lon="4.79563">
        <ele>294</ele>
        <time>2022-08-22T19:16:22Z</time>
      </trkpt>
      <trkpt lat="46.37522" lon="4.79542">
        <ele>297</ele>
        <time>2022-08-22T19:16:28Z</time>
      </trkpt>
      <trkpt lat="46.37543" lon="4.79512">
        <ele>300</ele>
        <time>2022-08-22T19:16:35Z</time>
      </trkpt>
      <trkpt lat="46.37571" lon="4.79459">
        <ele>304</ele>
        <time>2022-08-22T19:16:46Z</time>
      </trkpt>
      <trkpt lat="46.37577" lon="4.79441">
        <ele>306</ele>
        <time>2022-08-22T19:16:49Z</time>
      </trkpt>
      <trkpt lat="46.37576" lon="4.79409">
        <ele>308</ele>
        <time>2022-08-22T19:16:54Z</time>
      </trkpt>
      <trkpt lat="46.37575" lon="4.79407">
        <ele>308</ele>
        <time>2022-08-22T19:16:55Z</time>
      </trkpt>
      <trkpt lat="46.37583" lon="4.79363">
        <ele>308</ele>
        <time>2022-08-22T19:17:02Z</time>
      </trkpt>
      <trkpt lat="46.37656" lon="4.79316">
        <ele>300</ele>
        <time>2022-08-22T19:17:21Z</time>
      </trkpt>
      <trkpt lat="46.37658" lon="4.79297">
        <ele>297</ele>
        <time>2022-08-22T19:17:24Z</time>
      </trkpt>
      <trkpt lat="46.37709" lon="4.79247">
        <ele>283</ele>
        <time>2022-08-22T19:17:38Z</time>
      </trkpt>
      <trkpt lat="46.37677" lon="4.79188">
        <ele>277</ele>
        <time>2022-08-22T19:17:50Z</time>
      </trkpt>
      <trkpt lat="46.37613" lon="4.79145">
        <ele>277</ele>
        <time>2022-08-22T19:18:07Z</time>
      </trkpt>
      <trkpt lat="46.37546" lon="4.79122">
        <ele>280</ele>
        <time>2022-08-22T19:18:23Z</time>
      </trkpt>
      <trkpt lat="46.37431" lon="4.7909">
        <ele>281</ele>
        <time>2022-08-22T19:18:50Z</time>
      </trkpt>
      <trkpt lat="46.37414" lon="4.79087">
        <ele>281</ele>
        <time>2022-08-22T19:18:54Z</time>
      </trkpt>
      <trkpt lat="46.37401" lon="4.79071">
        <ele>279</ele>
        <time>2022-08-22T19:18:58Z</time>
      </trkpt>
      <trkpt lat="46.37395" lon="4.7905">
        <ele>277</ele>
        <time>2022-08-22T19:19:02Z</time>
      </trkpt>
      <trkpt lat="46.37393" lon="4.79032">
        <ele>274</ele>
        <time>2022-08-22T19:19:05Z</time>
      </trkpt>
      <trkpt lat="46.37397" lon="4.78874">
        <ele>255</ele>
        <time>2022-08-22T19:19:30Z</time>
      </trkpt>
      <trkpt lat="46.374" lon="4.78859">
        <ele>254</ele>
        <time>2022-08-22T19:19:33Z</time>
      </trkpt>
      <trkpt lat="46.37359" lon="4.78838">
        <ele>253</ele>
        <time>2022-08-22T19:19:43Z</time>
      </trkpt>
      <trkpt lat="46.3735" lon="4.7883">
        <ele>253</ele>
        <time>2022-08-22T19:19:45Z</time>
      </trkpt>
      <trkpt lat="46.3735" lon="4.78825">
        <ele>253</ele>
        <time>2022-08-22T19:19:46Z</time>
      </trkpt>
      <trkpt lat="46.37314" lon="4.78829">
        <ele>254</ele>
        <time>2022-08-22T19:19:54Z</time>
      </trkpt>
      <trkpt lat="46.37287" lon="4.78848">
        <ele>255</ele>
        <time>2022-08-22T19:20:01Z</time>
      </trkpt>
      <trkpt lat="46.37283" lon="4.78809">
        <ele>256</ele>
        <time>2022-08-22T19:20:08Z</time>
      </trkpt>
      <trkpt lat="46.37289" lon="4.7875">
        <ele>260</ele>
        <time>2022-08-22T19:20:17Z</time>
      </trkpt>
      <trkpt lat="46.37271" lon="4.78626">
        <ele>269</ele>
        <time>2022-08-22T19:20:38Z</time>
      </trkpt>
      <trkpt lat="46.37253" lon="4.78577">
        <ele>269</ele>
        <time>2022-08-22T19:20:47Z</time>
      </trkpt>
      <trkpt lat="46.37296" lon="4.78399">
        <ele>278</ele>
        <time>2022-08-22T19:21:17Z</time>
      </trkpt>
      <trkpt lat="46.37275" lon="4.7826">
        <ele>288</ele>
        <time>2022-08-22T19:21:40Z</time>
      </trkpt>
      <trkpt lat="46.37252" lon="4.78188">
        <ele>292</ele>
        <time>2022-08-22T19:21:53Z</time>
      </trkpt>
      <trkpt lat="46.37232" lon="4.78166">
        <ele>297</ele>
        <time>2022-08-22T19:21:59Z</time>
      </trkpt>
      <trkpt lat="46.37148" lon="4.78268">
        <ele>299</ele>
        <time>2022-08-22T19:22:24Z</time>
      </trkpt>
      <trkpt lat="46.37026" lon="4.78333">
        <ele>300</ele>
        <time>2022-08-22T19:22:55Z</time>
      </trkpt>
      <trkpt lat="46.36969" lon="4.78345">
        <ele>301</ele>
        <time>2022-08-22T19:23:08Z</time>
      </trkpt>
      <trkpt lat="46.36917" lon="4.78382">
        <ele>298</ele>
        <time>2022-08-22T19:23:22Z</time>
      </trkpt>
      <trkpt lat="46.36864" lon="4.78382">
        <ele>296</ele>
        <time>2022-08-22T19:23:34Z</time>
      </trkpt>
      <trkpt lat="46.36823" lon="4.78388">
        <ele>295</ele>
        <time>2022-08-22T19:23:44Z</time>
      </trkpt>
      <trkpt lat="46.36822" lon="4.78463">
        <ele>288</ele>
        <time>2022-08-22T19:23:56Z</time>
      </trkpt>
      <trkpt lat="46.36817" lon="4.78496">
        <ele>285</ele>
        <time>2022-08-22T19:24:01Z</time>
      </trkpt>
      <trkpt lat="46.36791" lon="4.78551">
        <ele>280</ele>
        <time>2022-08-22T19:24:12Z</time>
      </trkpt>
      <trkpt lat="46.36784" lon="4.78615">
        <ele>276</ele>
        <time>2022-08-22T19:24:22Z</time>
      </trkpt>
      <trkpt lat="46.36803" lon="4.78667">
        <ele>273</ele>
        <time>2022-08-22T19:24:32Z</time>
      </trkpt>
      <trkpt lat="46.36839" lon="4.78796">
        <ele>268</ele>
        <time>2022-08-22T19:24:54Z</time>
      </trkpt>
      <trkpt lat="46.36798" lon="4.78881">
        <ele>270</ele>
        <time>2022-08-22T19:25:11Z</time>
      </trkpt>
      <trkpt lat="46.36753" lon="4.7901">
        <ele>276</ele>
        <time>2022-08-22T19:25:34Z</time>
      </trkpt>
      <trkpt lat="46.36747" lon="4.78967">
        <ele>277</ele>
        <time>2022-08-22T19:25:41Z</time>
      </trkpt>
      <trkpt lat="46.36735" lon="4.78963">
        <ele>279</ele>
        <time>2022-08-22T19:25:44Z</time>
      </trkpt>
      <trkpt lat="46.36727" lon="4.78949">
        <ele>280</ele>
        <time>2022-08-22T19:25:47Z</time>
      </trkpt>
      <trkpt lat="46.36703" lon="4.78919">
        <ele>285</ele>
        <time>2022-08-22T19:25:55Z</time>
      </trkpt>
      <trkpt lat="46.36645" lon="4.78877">
        <ele>293</ele>
        <time>2022-08-22T19:26:10Z</time>
      </trkpt>
      <trkpt lat="46.36617" lon="4.78864">
        <ele>298</ele>
        <time>2022-08-22T19:26:17Z</time>
      </trkpt>
      <trkpt lat="46.36567" lon="4.78828">
        <ele>306</ele>
        <time>2022-08-22T19:26:30Z</time>
      </trkpt>
      <trkpt lat="46.36558" lon="4.78825">
        <ele>307</ele>
        <time>2022-08-22T19:26:32Z</time>
      </trkpt>
      <trkpt lat="46.36533" lon="4.78822">
        <ele>309</ele>
        <time>2022-08-22T19:26:38Z</time>
      </trkpt>
      <trkpt lat="46.36511" lon="4.78815">
        <ele>311</ele>
        <time>2022-08-22T19:26:43Z</time>
      </trkpt>
      <trkpt lat="46.36442" lon="4.78783">
        <ele>312</ele>
        <time>2022-08-22T19:27:00Z</time>
      </trkpt>
      <trkpt lat="46.36386" lon="4.78756">
        <ele>314</ele>
        <time>2022-08-22T19:27:14Z</time>
      </trkpt>
      <trkpt lat="46.36268" lon="4.78715">
        <ele>320</ele>
        <time>2022-08-22T19:27:42Z</time>
      </trkpt>
      <trkpt lat="46.36249" lon="4.78701">
        <ele>319</ele>
        <time>2022-08-22T19:27:47Z</time>
      </trkpt>
      <trkpt lat="46.36217" lon="4.78684">
        <ele>317</ele>
        <time>2022-08-22T19:27:55Z</time>
      </trkpt>
      <trkpt lat="46.36206" lon="4.78673">
        <ele>315</ele>
        <time>2022-08-22T19:27:58Z</time>
      </trkpt>
      <trkpt lat="46.36198" lon="4.78661">
        <ele>313</ele>
        <time>2022-08-22T19:28:01Z</time>
      </trkpt>
      <trkpt lat="46.36148" lon="4.78651">
        <ele>315</ele>
        <time>2022-08-22T19:28:12Z</time>
      </trkpt>
      <trkpt lat="46.36044" lon="4.787">
        <ele>324</ele>
        <time>2022-08-22T19:28:38Z</time>
      </trkpt>
      <trkpt lat="46.36038" lon="4.78707">
        <ele>325</ele>
        <time>2022-08-22T19:28:40Z</time>
      </trkpt>
      <trkpt lat="46.36037" lon="4.78723">
        <ele>328</ele>
        <time>2022-08-22T19:28:42Z</time>
      </trkpt>
      <trkpt lat="46.36033" lon="4.78733">
        <ele>330</ele>
        <time>2022-08-22T19:28:44Z</time>
      </trkpt>
      <trkpt lat="46.35977" lon="4.78806">
        <ele>335</ele>
        <time>2022-08-22T19:29:02Z</time>
      </trkpt>
      <trkpt lat="46.35943" lon="4.78856">
        <ele>338</ele>
        <time>2022-08-22T19:29:13Z</time>
      </trkpt>
      <trkpt lat="46.35899" lon="4.78916">
        <ele>340</ele>
        <time>2022-08-22T19:29:27Z</time>
      </trkpt>
      <trkpt lat="46.35873" lon="4.78896">
        <ele>341</ele>
        <time>2022-08-22T19:29:34Z</time>
      </trkpt>
      <trkpt lat="46.35849" lon="4.78883">
        <ele>342</ele>
        <time>2022-08-22T19:29:40Z</time>
      </trkpt>
      <trkpt lat="46.35783" lon="4.78868">
        <ele>345</ele>
        <time>2022-08-22T19:29:56Z</time>
      </trkpt>
      <trkpt lat="46.35698" lon="4.78839">
        <ele>347</ele>
        <time>2022-08-22T19:30:16Z</time>
      </trkpt>
      <trkpt lat="46.3568" lon="4.78836">
        <ele>347</ele>
        <time>2022-08-22T19:30:20Z</time>
      </trkpt>
      <trkpt lat="46.35663" lon="4.7883">
        <ele>347</ele>
        <time>2022-08-22T19:30:24Z</time>
      </trkpt>
      <trkpt lat="46.35641" lon="4.78818">
        <ele>347</ele>
        <time>2022-08-22T19:30:30Z</time>
      </trkpt>
      <trkpt lat="46.35557" lon="4.78771">
        <ele>345</ele>
        <time>2022-08-22T19:30:51Z</time>
      </trkpt>
      <trkpt lat="46.35516" lon="4.7875">
        <ele>346</ele>
        <time>2022-08-22T19:31:01Z</time>
      </trkpt>
      <trkpt lat="46.35502" lon="4.78742">
        <ele>346</ele>
        <time>2022-08-22T19:31:05Z</time>
      </trkpt>
      <trkpt lat="46.35456" lon="4.78722">
        <ele>349</ele>
        <time>2022-08-22T19:31:16Z</time>
      </trkpt>
      <trkpt lat="46.35443" lon="4.78721">
        <ele>350</ele>
        <time>2022-08-22T19:31:19Z</time>
      </trkpt>
      <trkpt lat="46.35399" lon="4.78708">
        <ele>354</ele>
        <time>2022-08-22T19:31:29Z</time>
      </trkpt>
      <trkpt lat="46.35402" lon="4.78693">
        <ele>355</ele>
        <time>2022-08-22T19:31:32Z</time>
      </trkpt>
      <trkpt lat="46.35436" lon="4.78589">
        <ele>359</ele>
        <time>2022-08-22T19:31:50Z</time>
      </trkpt>
      <trkpt lat="46.35442" lon="4.78561">
        <ele>359</ele>
        <time>2022-08-22T19:31:55Z</time>
      </trkpt>
      <trkpt lat="46.35448" lon="4.78526">
        <ele>360</ele>
        <time>2022-08-22T19:32:01Z</time>
      </trkpt>
      <trkpt lat="46.35441" lon="4.78507">
        <ele>362</ele>
        <time>2022-08-22T19:32:04Z</time>
      </trkpt>
      <trkpt lat="46.35429" lon="4.78485">
        <ele>363</ele>
        <time>2022-08-22T19:32:09Z</time>
      </trkpt>
      <trkpt lat="46.35411" lon="4.78462">
        <ele>365</ele>
        <time>2022-08-22T19:32:15Z</time>
      </trkpt>
      <trkpt lat="46.35356" lon="4.78445">
        <ele>370</ele>
        <time>2022-08-22T19:32:28Z</time>
      </trkpt>
      <trkpt lat="46.35247" lon="4.78388">
        <ele>377</ele>
        <time>2022-08-22T19:32:55Z</time>
      </trkpt>
      <trkpt lat="46.35173" lon="4.78353">
        <ele>385</ele>
        <time>2022-08-22T19:33:13Z</time>
      </trkpt>
      <trkpt lat="46.35165" lon="4.78347">
        <ele>386</ele>
        <time>2022-08-22T19:33:15Z</time>
      </trkpt>
      <trkpt lat="46.35116" lon="4.78331">
        <ele>388</ele>
        <time>2022-08-22T19:33:27Z</time>
      </trkpt>
      <trkpt lat="46.35066" lon="4.78311">
        <ele>387</ele>
        <time>2022-08-22T19:33:39Z</time>
      </trkpt>
      <trkpt lat="46.35027" lon="4.78292">
        <ele>387</ele>
        <time>2022-08-22T19:33:49Z</time>
      </trkpt>
      <trkpt lat="46.35014" lon="4.78289">
        <ele>387</ele>
        <time>2022-08-22T19:33:52Z</time>
      </trkpt>
      <trkpt lat="46.34991" lon="4.78282">
        <ele>387</ele>
        <time>2022-08-22T19:33:57Z</time>
      </trkpt>
      <trkpt lat="46.34955" lon="4.78266">
        <ele>385</ele>
        <time>2022-08-22T19:34:06Z</time>
      </trkpt>
      <trkpt lat="46.34928" lon="4.78264">
        <ele>385</ele>
        <time>2022-08-22T19:34:12Z</time>
      </trkpt>
      <trkpt lat="46.34912" lon="4.78268">
        <ele>385</ele>
        <time>2022-08-22T19:34:16Z</time>
      </trkpt>
      <trkpt lat="46.34892" lon="4.78254">
        <ele>384</ele>
        <time>2022-08-22T19:34:21Z</time>
      </trkpt>
      <trkpt lat="46.34885" lon="4.78253">
        <ele>384</ele>
        <time>2022-08-22T19:34:23Z</time>
      </trkpt>
      <trkpt lat="46.34885" lon="4.7824">
        <ele>383</ele>
        <time>2022-08-22T19:34:25Z</time>
      </trkpt>
      <trkpt lat="46.34881" lon="4.78234">
        <ele>382</ele>
        <time>2022-08-22T19:34:26Z</time>
      </trkpt>
      <trkpt lat="46.34873" lon="4.78226">
        <ele>381</ele>
        <time>2022-08-22T19:34:29Z</time>
      </trkpt>
      <trkpt lat="46.34859" lon="4.7822">
        <ele>380</ele>
        <time>2022-08-22T19:34:32Z</time>
      </trkpt>
      <trkpt lat="46.34796" lon="4.78209">
        <ele>377</ele>
        <time>2022-08-22T19:34:47Z</time>
      </trkpt>
      <trkpt lat="46.34784" lon="4.78202">
        <ele>376</ele>
        <time>2022-08-22T19:34:50Z</time>
      </trkpt>
      <trkpt lat="46.34775" lon="4.78201">
        <ele>375</ele>
        <time>2022-08-22T19:34:52Z</time>
      </trkpt>
      <trkpt lat="46.34759" lon="4.78203">
        <ele>375</ele>
        <time>2022-08-22T19:34:56Z</time>
      </trkpt>
      <trkpt lat="46.34725" lon="4.78204">
        <ele>371</ele>
        <time>2022-08-22T19:35:04Z</time>
      </trkpt>
      <trkpt lat="46.3472" lon="4.78213">
        <ele>371</ele>
        <time>2022-08-22T19:35:05Z</time>
      </trkpt>
      <trkpt lat="46.34712" lon="4.78255">
        <ele>373</ele>
        <time>2022-08-22T19:35:12Z</time>
      </trkpt>
      <trkpt lat="46.34707" lon="4.78265">
        <ele>372</ele>
        <time>2022-08-22T19:35:14Z</time>
      </trkpt>
      <trkpt lat="46.34699" lon="4.78267">
        <ele>371</ele>
        <time>2022-08-22T19:35:16Z</time>
      </trkpt>
      <trkpt lat="46.34691" lon="4.78261">
        <ele>370</ele>
        <time>2022-08-22T19:35:18Z</time>
      </trkpt>
      <trkpt lat="46.34684" lon="4.78249">
        <ele>369</ele>
        <time>2022-08-22T19:35:21Z</time>
      </trkpt>
      <trkpt lat="46.34672" lon="4.78241">
        <ele>366</ele>
        <time>2022-08-22T19:35:24Z</time>
      </trkpt>
      <trkpt lat="46.34663" lon="4.78232">
        <ele>365</ele>
        <time>2022-08-22T19:35:27Z</time>
      </trkpt>
      <trkpt lat="46.34659" lon="4.78215">
        <ele>363</ele>
        <time>2022-08-22T19:35:30Z</time>
      </trkpt>
      <trkpt lat="46.34666" lon="4.78194">
        <ele>363</ele>
        <time>2022-08-22T19:35:33Z</time>
      </trkpt>
      <trkpt lat="46.34666" lon="4.78187">
        <ele>362</ele>
        <time>2022-08-22T19:35:34Z</time>
      </trkpt>
      <trkpt lat="46.34657" lon="4.78185">
        <ele>361</ele>
        <time>2022-08-22T19:35:37Z</time>
      </trkpt>
      <trkpt lat="46.34646" lon="4.78187">
        <ele>360</ele>
        <time>2022-08-22T19:35:39Z</time>
      </trkpt>
      <trkpt lat="46.34627" lon="4.78193">
        <ele>358</ele>
        <time>2022-08-22T19:35:44Z</time>
      </trkpt>
      <trkpt lat="46.34615" lon="4.78202">
        <ele>358</ele>
        <time>2022-08-22T19:35:47Z</time>
      </trkpt>
      <trkpt lat="46.34589" lon="4.78228">
        <ele>357</ele>
        <time>2022-08-22T19:35:54Z</time>
      </trkpt>
      <trkpt lat="46.34573" lon="4.78236">
        <ele>358</ele>
        <time>2022-08-22T19:35:58Z</time>
      </trkpt>
      <trkpt lat="46.3455" lon="4.78237">
        <ele>360</ele>
        <time>2022-08-22T19:36:04Z</time>
      </trkpt>
      <trkpt lat="46.34526" lon="4.78233">
        <ele>362</ele>
        <time>2022-08-22T19:36:09Z</time>
      </trkpt>
      <trkpt lat="46.34471" lon="4.78224">
        <ele>365</ele>
        <time>2022-08-22T19:36:22Z</time>
      </trkpt>
      <trkpt lat="46.34455" lon="4.78216">
        <ele>366</ele>
        <time>2022-08-22T19:36:26Z</time>
      </trkpt>
      <trkpt lat="46.3443" lon="4.78208">
        <ele>367</ele>
        <time>2022-08-22T19:36:32Z</time>
      </trkpt>
      <trkpt lat="46.3442" lon="4.78189">
        <ele>366</ele>
        <time>2022-08-22T19:36:36Z</time>
      </trkpt>
      <trkpt lat="46.34417" lon="4.78187">
        <ele>366</ele>
        <time>2022-08-22T19:36:37Z</time>
      </trkpt>
      <trkpt lat="46.34413" lon="4.78204">
        <ele>368</ele>
        <time>2022-08-22T19:36:40Z</time>
      </trkpt>
      <trkpt lat="46.34408" lon="4.78208">
        <ele>368</ele>
        <time>2022-08-22T19:36:41Z</time>
      </trkpt>
      <trkpt lat="46.3439" lon="4.78203">
        <ele>369</ele>
        <time>2022-08-22T19:36:45Z</time>
      </trkpt>
      <trkpt lat="46.34363" lon="4.78212">
        <ele>370</ele>
        <time>2022-08-22T19:36:52Z</time>
      </trkpt>
      <trkpt lat="46.34333" lon="4.78207">
        <ele>371</ele>
        <time>2022-08-22T19:36:59Z</time>
      </trkpt>
      <trkpt lat="46.34323" lon="4.7821">
        <ele>371</ele>
        <time>2022-08-22T19:37:01Z</time>
      </trkpt>
      <trkpt lat="46.34313" lon="4.7821">
        <ele>371</ele>
        <time>2022-08-22T19:37:03Z</time>
      </trkpt>
      <trkpt lat="46.34307" lon="4.78209">
        <ele>371</ele>
        <time>2022-08-22T19:37:05Z</time>
      </trkpt>
      <trkpt lat="46.3429" lon="4.78201">
        <ele>371</ele>
        <time>2022-08-22T19:37:09Z</time>
      </trkpt>
      <trkpt lat="46.34275" lon="4.7819">
        <ele>370</ele>
        <time>2022-08-22T19:37:13Z</time>
      </trkpt>
      <trkpt lat="46.34255" lon="4.78173">
        <ele>370</ele>
        <time>2022-08-22T19:37:18Z</time>
      </trkpt>
      <trkpt lat="46.34248" lon="4.78172">
        <ele>370</ele>
        <time>2022-08-22T19:37:20Z</time>
      </trkpt>
      <trkpt lat="46.34208" lon="4.78161">
        <ele>370</ele>
        <time>2022-08-22T19:37:29Z</time>
      </trkpt>
      <trkpt lat="46.34199" lon="4.78155">
        <ele>369</ele>
        <time>2022-08-22T19:37:32Z</time>
      </trkpt>
      <trkpt lat="46.34199" lon="4.78146">
        <ele>368</ele>
        <time>2022-08-22T19:37:33Z</time>
      </trkpt>
      <trkpt lat="46.34196" lon="4.78133">
        <ele>367</ele>
        <time>2022-08-22T19:37:35Z</time>
      </trkpt>
      <trkpt lat="46.34196" lon="4.78098">
        <ele>365</ele>
        <time>2022-08-22T19:37:41Z</time>
      </trkpt>
      <trkpt lat="46.34188" lon="4.78088">
        <ele>364</ele>
        <time>2022-08-22T19:37:44Z</time>
      </trkpt>
      <trkpt lat="46.34161" lon="4.78083">
        <ele>365</ele>
        <time>2022-08-22T19:37:50Z</time>
      </trkpt>
      <trkpt lat="46.34157" lon="4.78071">
        <ele>363</ele>
        <time>2022-08-22T19:37:52Z</time>
      </trkpt>
      <trkpt lat="46.34157" lon="4.78054">
        <ele>361</ele>
        <time>2022-08-22T19:37:55Z</time>
      </trkpt>
      <trkpt lat="46.34139" lon="4.7804">
        <ele>359</ele>
        <time>2022-08-22T19:38:00Z</time>
      </trkpt>
      <trkpt lat="46.34114" lon="4.78039">
        <ele>360</ele>
        <time>2022-08-22T19:38:05Z</time>
      </trkpt>
      <trkpt lat="46.34073" lon="4.78041">
        <ele>360</ele>
        <time>2022-08-22T19:38:15Z</time>
      </trkpt>
      <trkpt lat="46.34041" lon="4.7804">
        <ele>360</ele>
        <time>2022-08-22T19:38:22Z</time>
      </trkpt>
      <trkpt lat="46.33958" lon="4.78042">
        <ele>359</ele>
        <time>2022-08-22T19:38:42Z</time>
      </trkpt>
      <trkpt lat="46.33929" lon="4.78046">
        <ele>357</ele>
        <time>2022-08-22T19:38:49Z</time>
      </trkpt>
      <trkpt lat="46.33893" lon="4.78047">
        <ele>356</ele>
        <time>2022-08-22T19:38:57Z</time>
      </trkpt>
      <trkpt lat="46.33876" lon="4.78045">
        <ele>355</ele>
        <time>2022-08-22T19:39:01Z</time>
      </trkpt>
      <trkpt lat="46.33801" lon="4.78064">
        <ele>350</ele>
        <time>2022-08-22T19:39:19Z</time>
      </trkpt>
      <trkpt lat="46.33722" lon="4.78071">
        <ele>344</ele>
        <time>2022-08-22T19:39:37Z</time>
      </trkpt>
      <trkpt lat="46.33625" lon="4.78058">
        <ele>335</ele>
        <time>2022-08-22T19:40:00Z</time>
      </trkpt>
      <trkpt lat="46.33595" lon="4.78021">
        <ele>333</ele>
        <time>2022-08-22T19:40:09Z</time>
      </trkpt>
      <trkpt lat="46.33591" lon="4.78012">
        <ele>333</ele>
        <time>2022-08-22T19:40:11Z</time>
      </trkpt>
      <trkpt lat="46.33631" lon="4.78008">
        <ele>337</ele>
        <time>2022-08-22T19:40:20Z</time>
      </trkpt>
      <trkpt lat="46.33642" lon="4.78004">
        <ele>338</ele>
        <time>2022-08-22T19:40:23Z</time>
      </trkpt>
      <trkpt lat="46.33656" lon="4.78005">
        <ele>340</ele>
        <time>2022-08-22T19:40:26Z</time>
      </trkpt>
      <trkpt lat="46.33682" lon="4.78027">
        <ele>342</ele>
        <time>2022-08-22T19:40:33Z</time>
      </trkpt>
      <trkpt lat="46.33698" lon="4.78023">
        <ele>343</ele>
        <time>2022-08-22T19:40:37Z</time>
      </trkpt>
      <trkpt lat="46.33729" lon="4.78013">
        <ele>345</ele>
        <time>2022-08-22T19:40:45Z</time>
      </trkpt>
      <trkpt lat="46.33778" lon="4.78005">
        <ele>349</ele>
        <time>2022-08-22T19:40:56Z</time>
      </trkpt>
      <trkpt lat="46.33802" lon="4.7801">
        <ele>350</ele>
        <time>2022-08-22T19:41:02Z</time>
      </trkpt>
      <trkpt lat="46.33815" lon="4.78007">
        <ele>351</ele>
        <time>2022-08-22T19:41:05Z</time>
      </trkpt>
      <trkpt lat="46.33831" lon="4.78002">
        <ele>352</ele>
        <time>2022-08-22T19:41:09Z</time>
      </trkpt>
      <trkpt lat="46.3385" lon="4.77986">
        <ele>351</ele>
        <time>2022-08-22T19:41:14Z</time>
      </trkpt>
      <trkpt lat="46.33864" lon="4.77978">
        <ele>350</ele>
        <time>2022-08-22T19:41:17Z</time>
      </trkpt>
      <trkpt lat="46.33899" lon="4.77967">
        <ele>350</ele>
        <time>2022-08-22T19:41:26Z</time>
      </trkpt>
      <trkpt lat="46.33912" lon="4.77965">
        <ele>350</ele>
        <time>2022-08-22T19:41:29Z</time>
      </trkpt>
      <trkpt lat="46.33919" lon="4.77967">
        <ele>350</ele>
        <time>2022-08-22T19:41:30Z</time>
      </trkpt>
      <trkpt lat="46.3393" lon="4.77964">
        <ele>350</ele>
        <time>2022-08-22T19:41:33Z</time>
      </trkpt>
      <trkpt lat="46.33948" lon="4.77953">
        <ele>349</ele>
        <time>2022-08-22T19:41:37Z</time>
      </trkpt>
      <trkpt lat="46.33958" lon="4.77944">
        <ele>348</ele>
        <time>2022-08-22T19:41:40Z</time>
      </trkpt>
      <trkpt lat="46.34004" lon="4.77917">
        <ele>344</ele>
        <time>2022-08-22T19:41:52Z</time>
      </trkpt>
      <trkpt lat="46.34018" lon="4.77912">
        <ele>343</ele>
        <time>2022-08-22T19:41:55Z</time>
      </trkpt>
      <trkpt lat="46.34054" lon="4.77914">
        <ele>342</ele>
        <time>2022-08-22T19:42:04Z</time>
      </trkpt>
      <trkpt lat="46.34106" lon="4.77913">
        <ele>340</ele>
        <time>2022-08-22T19:42:16Z</time>
      </trkpt>
      <trkpt lat="46.34174" lon="4.7792">
        <ele>337</ele>
        <time>2022-08-22T19:42:32Z</time>
      </trkpt>
      <trkpt lat="46.34289" lon="4.77923">
        <ele>330</ele>
        <time>2022-08-22T19:42:59Z</time>
      </trkpt>
      <trkpt lat="46.34315" lon="4.77917">
        <ele>327</ele>
        <time>2022-08-22T19:43:05Z</time>
      </trkpt>
      <trkpt lat="46.34351" lon="4.77901">
        <ele>323</ele>
        <time>2022-08-22T19:43:13Z</time>
      </trkpt>
      <trkpt lat="46.34372" lon="4.77894">
        <ele>322</ele>
        <time>2022-08-22T19:43:19Z</time>
      </trkpt>
      <trkpt lat="46.34452" lon="4.77886">
        <ele>320</ele>
        <time>2022-08-22T19:43:37Z</time>
      </trkpt>
      <trkpt lat="46.34479" lon="4.77889">
        <ele>320</ele>
        <time>2022-08-22T19:43:44Z</time>
      </trkpt>
      <trkpt lat="46.34504" lon="4.77879">
        <ele>319</ele>
        <time>2022-08-22T19:43:50Z</time>
      </trkpt>
      <trkpt lat="46.34537" lon="4.7786">
        <ele>319</ele>
        <time>2022-08-22T19:43:58Z</time>
      </trkpt>
      <trkpt lat="46.34541" lon="4.77857">
        <ele>319</ele>
        <time>2022-08-22T19:43:59Z</time>
      </trkpt>
      <trkpt lat="46.34559" lon="4.7785">
        <ele>319</ele>
        <time>2022-08-22T19:44:03Z</time>
      </trkpt>
      <trkpt lat="46.34597" lon="4.77824">
        <ele>319</ele>
        <time>2022-08-22T19:44:13Z</time>
      </trkpt>
      <trkpt lat="46.34615" lon="4.77801">
        <ele>319</ele>
        <time>2022-08-22T19:44:19Z</time>
      </trkpt>
      <trkpt lat="46.34623" lon="4.77787">
        <ele>319</ele>
        <time>2022-08-22T19:44:22Z</time>
      </trkpt>
      <trkpt lat="46.3463" lon="4.77767">
        <ele>319</ele>
        <time>2022-08-22T19:44:25Z</time>
      </trkpt>
      <trkpt lat="46.34647" lon="4.77741">
        <ele>318</ele>
        <time>2022-08-22T19:44:31Z</time>
      </trkpt>
      <trkpt lat="46.34681" lon="4.77697">
        <ele>320</ele>
        <time>2022-08-22T19:44:42Z</time>
      </trkpt>
      <trkpt lat="46.34694" lon="4.77674">
        <ele>320</ele>
        <time>2022-08-22T19:44:46Z</time>
      </trkpt>
      <trkpt lat="46.34703" lon="4.7766">
        <ele>321</ele>
        <time>2022-08-22T19:44:50Z</time>
      </trkpt>
      <trkpt lat="46.34754" lon="4.77599">
        <ele>323</ele>
        <time>2022-08-22T19:45:05Z</time>
      </trkpt>
      <trkpt lat="46.34798" lon="4.77538">
        <ele>328</ele>
        <time>2022-08-22T19:45:19Z</time>
      </trkpt>
      <trkpt lat="46.34816" lon="4.77515">
        <ele>329</ele>
        <time>2022-08-22T19:45:25Z</time>
      </trkpt>
      <trkpt lat="46.34852" lon="4.77456">
        <ele>330</ele>
        <time>2022-08-22T19:45:38Z</time>
      </trkpt>
      <trkpt lat="46.34876" lon="4.77382">
        <ele>328</ele>
        <time>2022-08-22T19:45:51Z</time>
      </trkpt>
      <trkpt lat="46.34885" lon="4.77365">
        <ele>327</ele>
        <time>2022-08-22T19:45:54Z</time>
      </trkpt>
      <trkpt lat="46.34892" lon="4.77362">
        <ele>327</ele>
        <time>2022-08-22T19:45:56Z</time>
      </trkpt>
      <trkpt lat="46.34912" lon="4.7736">
        <ele>327</ele>
        <time>2022-08-22T19:46:01Z</time>
      </trkpt>
      <trkpt lat="46.34925" lon="4.77361">
        <ele>327</ele>
        <time>2022-08-22T19:46:04Z</time>
      </trkpt>
      <trkpt lat="46.34966" lon="4.77386">
        <ele>330</ele>
        <time>2022-08-22T19:46:14Z</time>
      </trkpt>
      <trkpt lat="46.34982" lon="4.77373">
        <ele>331</ele>
        <time>2022-08-22T19:46:18Z</time>
      </trkpt>
      <trkpt lat="46.34997" lon="4.7732">
        <ele>331</ele>
        <time>2022-08-22T19:46:28Z</time>
      </trkpt>
      <trkpt lat="46.34999" lon="4.77193">
        <ele>331</ele>
        <time>2022-08-22T19:46:48Z</time>
      </trkpt>
      <trkpt lat="46.34998" lon="4.77147">
        <ele>331</ele>
        <time>2022-08-22T19:46:55Z</time>
      </trkpt>
      <trkpt lat="46.34999" lon="4.77138">
        <ele>332</ele>
        <time>2022-08-22T19:46:57Z</time>
      </trkpt>
      <trkpt lat="46.35008" lon="4.77112">
        <ele>335</ele>
        <time>2022-08-22T19:47:02Z</time>
      </trkpt>
      <trkpt lat="46.35031" lon="4.7703">
        <ele>338</ele>
        <time>2022-08-22T19:47:16Z</time>
      </trkpt>
      <trkpt lat="46.35056" lon="4.76984">
        <ele>339</ele>
        <time>2022-08-22T19:47:25Z</time>
      </trkpt>
      <trkpt lat="46.35067" lon="4.76983">
        <ele>340</ele>
        <time>2022-08-22T19:47:28Z</time>
      </trkpt>
      <trkpt lat="46.35077" lon="4.76979">
        <ele>341</ele>
        <time>2022-08-22T19:47:30Z</time>
      </trkpt>
      <trkpt lat="46.35093" lon="4.76992">
        <ele>342</ele>
        <time>2022-08-22T19:47:35Z</time>
      </trkpt>
      <trkpt lat="46.35117" lon="4.77008">
        <ele>344</ele>
        <time>2022-08-22T19:47:41Z</time>
      </trkpt>
      <trkpt lat="46.35133" lon="4.77009">
        <ele>345</ele>
        <time>2022-08-22T19:47:44Z</time>
      </trkpt>
      <trkpt lat="46.35141" lon="4.7705">
        <ele>350</ele>
        <time>2022-08-22T19:47:51Z</time>
      </trkpt>
      <trkpt lat="46.35152" lon="4.77079">
        <ele>355</ele>
        <time>2022-08-22T19:47:57Z</time>
      </trkpt>
      <trkpt lat="46.35179" lon="4.77112">
        <ele>360</ele>
        <time>2022-08-22T19:48:05Z</time>
      </trkpt>
      <trkpt lat="46.35196" lon="4.77188">
        <ele>368</ele>
        <time>2022-08-22T19:48:18Z</time>
      </trkpt>
      <trkpt lat="46.35224" lon="4.77307">
        <ele>376</ele>
        <time>2022-08-22T19:48:38Z</time>
      </trkpt>
      <trkpt lat="46.35238" lon="4.77318">
        <ele>377</ele>
        <time>2022-08-22T19:48:42Z</time>
      </trkpt>
      <trkpt lat="46.35272" lon="4.77317">
        <ele>380</ele>
        <time>2022-08-22T19:48:50Z</time>
      </trkpt>
      <trkpt lat="46.35285" lon="4.77323">
        <ele>381</ele>
        <time>2022-08-22T19:48:53Z</time>
      </trkpt>
      <trkpt lat="46.35305" lon="4.77323">
        <ele>382</ele>
        <time>2022-08-22T19:48:58Z</time>
      </trkpt>
      <trkpt lat="46.35342" lon="4.77327">
        <ele>385</ele>
        <time>2022-08-22T19:49:06Z</time>
      </trkpt>
      <trkpt lat="46.35385" lon="4.77322">
        <ele>388</ele>
        <time>2022-08-22T19:49:16Z</time>
      </trkpt>
      <trkpt lat="46.35418" lon="4.77339">
        <ele>392</ele>
        <time>2022-08-22T19:49:24Z</time>
      </trkpt>
      <trkpt lat="46.35472" lon="4.77339">
        <ele>397</ele>
        <time>2022-08-22T19:49:37Z</time>
      </trkpt>
      <trkpt lat="46.35479" lon="4.77339">
        <ele>398</ele>
        <time>2022-08-22T19:49:39Z</time>
      </trkpt>
      <trkpt lat="46.35534" lon="4.77387">
        <ele>397</ele>
        <time>2022-08-22T19:49:54Z</time>
      </trkpt>
      <trkpt lat="46.35628" lon="4.77402">
        <ele>400</ele>
        <time>2022-08-22T19:50:16Z</time>
      </trkpt>
      <trkpt lat="46.35679" lon="4.77397">
        <ele>402</ele>
        <time>2022-08-22T19:50:28Z</time>
      </trkpt>
      <trkpt lat="46.35822" lon="4.77483">
        <ele>391</ele>
        <time>2022-08-22T19:51:04Z</time>
      </trkpt>
      <trkpt lat="46.36041" lon="4.77647">
        <ele>362</ele>
        <time>2022-08-22T19:52:01Z</time>
      </trkpt>
      <trkpt lat="46.36096" lon="4.77689">
        <ele>359</ele>
        <time>2022-08-22T19:52:16Z</time>
      </trkpt>
      <trkpt lat="46.36133" lon="4.77693">
        <ele>358</ele>
        <time>2022-08-22T19:52:25Z</time>
      </trkpt>
      <trkpt lat="46.3621" lon="4.77701">
        <ele>355</ele>
        <time>2022-08-22T19:52:43Z</time>
      </trkpt>
      <trkpt lat="46.36273" lon="4.77682">
        <ele>355</ele>
        <time>2022-08-22T19:52:58Z</time>
      </trkpt>
      <trkpt lat="46.36339" lon="4.77639">
        <ele>355</ele>
        <time>2022-08-22T19:53:15Z</time>
      </trkpt>
      <trkpt lat="46.3635" lon="4.77632">
        <ele>354</ele>
        <time>2022-08-22T19:53:17Z</time>
      </trkpt>
      <trkpt lat="46.36383" lon="4.77596">
        <ele>353</ele>
        <time>2022-08-22T19:53:27Z</time>
      </trkpt>
      <trkpt lat="46.36426" lon="4.77579">
        <ele>354</ele>
        <time>2022-08-22T19:53:37Z</time>
      </trkpt>
      <trkpt lat="46.36468" lon="4.7758">
        <ele>355</ele>
        <time>2022-08-22T19:53:47Z</time>
      </trkpt>
      <trkpt lat="46.36504" lon="4.77621">
        <ele>355</ele>
        <time>2022-08-22T19:53:58Z</time>
      </trkpt>
      <trkpt lat="46.3655" lon="4.77677">
        <ele>355</ele>
        <time>2022-08-22T19:54:12Z</time>
      </trkpt>
      <trkpt lat="46.36595" lon="4.7771">
        <ele>354</ele>
        <time>2022-08-22T19:54:24Z</time>
      </trkpt>
      <trkpt lat="46.36648" lon="4.77724">
        <ele>356</ele>
        <time>2022-08-22T19:54:36Z</time>
      </trkpt>
      <trkpt lat="46.36712" lon="4.77721">
        <ele>358</ele>
        <time>2022-08-22T19:54:51Z</time>
      </trkpt>
      <trkpt lat="46.36729" lon="4.77722">
        <ele>358</ele>
        <time>2022-08-22T19:54:55Z</time>
      </trkpt>
      <trkpt lat="46.36901" lon="4.77736">
        <ele>356</ele>
        <time>2022-08-22T19:55:36Z</time>
      </trkpt>
      <trkpt lat="46.36928" lon="4.77755">
        <ele>355</ele>
        <time>2022-08-22T19:55:43Z</time>
      </trkpt>
      <trkpt lat="46.36952" lon="4.77776">
        <ele>354</ele>
        <time>2022-08-22T19:55:49Z</time>
      </trkpt>
      <trkpt lat="46.3701" lon="4.77776">
        <ele>352</ele>
        <time>2022-08-22T19:56:03Z</time>
      </trkpt>
      <trkpt lat="46.37021" lon="4.77814">
        <ele>350</ele>
        <time>2022-08-22T19:56:09Z</time>
      </trkpt>
      <trkpt lat="46.37037" lon="4.7784">
        <ele>347</ele>
        <time>2022-08-22T19:56:15Z</time>
      </trkpt>
      <trkpt lat="46.37059" lon="4.77845">
        <ele>343</ele>
        <time>2022-08-22T19:56:20Z</time>
      </trkpt>
      <trkpt lat="46.37064" lon="4.77871">
        <ele>342</ele>
        <time>2022-08-22T19:56:24Z</time>
      </trkpt>
      <trkpt lat="46.37066" lon="4.77873">
        <ele>342</ele>
        <time>2022-08-22T19:56:25Z</time>
      </trkpt>
      <trkpt lat="46.37083" lon="4.77895">
        <ele>339</ele>
        <time>2022-08-22T19:56:30Z</time>
      </trkpt>
      <trkpt lat="46.37098" lon="4.77919">
        <ele>336</ele>
        <time>2022-08-22T19:56:36Z</time>
      </trkpt>
      <trkpt lat="46.37099" lon="4.77956">
        <ele>333</ele>
        <time>2022-08-22T19:56:42Z</time>
      </trkpt>
      <trkpt lat="46.37116" lon="4.77974">
        <ele>330</ele>
        <time>2022-08-22T19:56:46Z</time>
      </trkpt>
      <trkpt lat="46.37152" lon="4.77963">
        <ele>325</ele>
        <time>2022-08-22T19:56:55Z</time>
      </trkpt>
      <trkpt lat="46.37196" lon="4.77973">
        <ele>320</ele>
        <time>2022-08-22T19:57:05Z</time>
      </trkpt>
      <trkpt lat="46.37225" lon="4.77982">
        <ele>316</ele>
        <time>2022-08-22T19:57:12Z</time>
      </trkpt>
      <trkpt lat="46.37245" lon="4.77979">
        <ele>315</ele>
        <time>2022-08-22T19:57:17Z</time>
      </trkpt>
      <trkpt lat="46.37312" lon="4.77946">
        <ele>309</ele>
        <time>2022-08-22T19:57:34Z</time>
      </trkpt>
      <trkpt lat="46.37335" lon="4.77957">
        <ele>307</ele>
        <time>2022-08-22T19:57:39Z</time>
      </trkpt>
      <trkpt lat="46.37339" lon="4.77959">
        <ele>306</ele>
        <time>2022-08-22T19:57:40Z</time>
      </trkpt>
      <trkpt lat="46.37357" lon="4.77953">
        <ele>306</ele>
        <time>2022-08-22T19:57:45Z</time>
      </trkpt>
      <trkpt lat="46.37399" lon="4.77927">
        <ele>306</ele>
        <time>2022-08-22T19:57:55Z</time>
      </trkpt>
      <trkpt lat="46.3742" lon="4.77933">
        <ele>305</ele>
        <time>2022-08-22T19:58:00Z</time>
      </trkpt>
      <trkpt lat="46.37481" lon="4.77926">
        <ele>301</ele>
        <time>2022-08-22T19:58:14Z</time>
      </trkpt>
      <trkpt lat="46.37492" lon="4.77979">
        <ele>300</ele>
        <time>2022-08-22T19:58:23Z</time>
      </trkpt>
      <trkpt lat="46.375" lon="4.78036">
        <ele>299</ele>
        <time>2022-08-22T19:58:33Z</time>
      </trkpt>
      <trkpt lat="46.37494" lon="4.78089">
        <ele>299</ele>
        <time>2022-08-22T19:58:41Z</time>
      </trkpt>
      <trkpt lat="46.37491" lon="4.78113">
        <ele>299</ele>
        <time>2022-08-22T19:58:45Z</time>
      </trkpt>
      <trkpt lat="46.37501" lon="4.7818">
        <ele>299</ele>
        <time>2022-08-22T19:58:56Z</time>
      </trkpt>
      <trkpt lat="46.37532" lon="4.78251">
        <ele>296</ele>
        <time>2022-08-22T19:59:10Z</time>
      </trkpt>
      <trkpt lat="46.3754" lon="4.78289">
        <ele>297</ele>
        <time>2022-08-22T19:59:16Z</time>
      </trkpt>
      <trkpt lat="46.37544" lon="4.78295">
        <ele>297</ele>
        <time>2022-08-22T19:59:18Z</time>
      </trkpt>
      <trkpt lat="46.37567" lon="4.7831">
        <ele>297</ele>
        <time>2022-08-22T19:59:24Z</time>
      </trkpt>
      <trkpt lat="46.37605" lon="4.78326">
        <ele>295</ele>
        <time>2022-08-22T19:59:33Z</time>
      </trkpt>
      <trkpt lat="46.37613" lon="4.78333">
        <ele>294</ele>
        <time>2022-08-22T19:59:35Z</time>
      </trkpt>
      <trkpt lat="46.37628" lon="4.78351">
        <ele>293</ele>
        <time>2022-08-22T19:59:40Z</time>
      </trkpt>
      <trkpt lat="46.3765" lon="4.78364">
        <ele>291</ele>
        <time>2022-08-22T19:59:45Z</time>
      </trkpt>
      <trkpt lat="46.37675" lon="4.78417">
        <ele>291</ele>
        <time>2022-08-22T19:59:55Z</time>
      </trkpt>
      <trkpt lat="46.3769" lon="4.78432">
        <ele>288</ele>
        <time>2022-08-22T20:00:00Z</time>
      </trkpt>
      <trkpt lat="46.377" lon="4.78437">
        <ele>286</ele>
        <time>2022-08-22T20:00:02Z</time>
      </trkpt>
      <trkpt lat="46.37767" lon="4.7844">
        <ele>278</ele>
        <time>2022-08-22T20:00:18Z</time>
      </trkpt>
      <trkpt lat="46.37781" lon="4.78436">
        <ele>277</ele>
        <time>2022-08-22T20:00:21Z</time>
      </trkpt>
      <trkpt lat="46.37815" lon="4.78435">
        <ele>274</ele>
        <time>2022-08-22T20:00:29Z</time>
      </trkpt>
      <trkpt lat="46.37841" lon="4.78407">
        <ele>271</ele>
        <time>2022-08-22T20:00:37Z</time>
      </trkpt>
      <trkpt lat="46.37863" lon="4.78396">
        <ele>268</ele>
        <time>2022-08-22T20:00:42Z</time>
      </trkpt>
      <trkpt lat="46.37889" lon="4.78374">
        <ele>264</ele>
        <time>2022-08-22T20:00:49Z</time>
      </trkpt>
      <trkpt lat="46.37894" lon="4.78362">
        <ele>263</ele>
        <time>2022-08-22T20:00:51Z</time>
      </trkpt>
      <trkpt lat="46.37925" lon="4.78353">
        <ele>260</ele>
        <time>2022-08-22T20:00:59Z</time>
      </trkpt>
      <trkpt lat="46.37959" lon="4.7834">
        <ele>258</ele>
        <time>2022-08-22T20:01:07Z</time>
      </trkpt>
      <trkpt lat="46.38063" lon="4.7829">
        <ele>255</ele>
        <time>2022-08-22T20:01:33Z</time>
      </trkpt>
      <trkpt lat="46.3818" lon="4.78223">
        <ele>244</ele>
        <time>2022-08-22T20:02:02Z</time>
      </trkpt>
      <trkpt lat="46.3822" lon="4.78312">
        <ele>239</ele>
        <time>2022-08-22T20:02:19Z</time>
      </trkpt>
      <trkpt lat="46.38253" lon="4.78319">
        <ele>233</ele>
        <time>2022-08-22T20:02:27Z</time>
      </trkpt>
      <trkpt lat="46.38332" lon="4.78304">
        <ele>232</ele>
        <time>2022-08-22T20:02:45Z</time>
      </trkpt>
      <trkpt lat="46.38336" lon="4.78286">
        <ele>232</ele>
        <time>2022-08-22T20:02:48Z</time>
      </trkpt>
      <trkpt lat="46.38352" lon="4.78194">
        <ele>236</ele>
        <time>2022-08-22T20:03:04Z</time>
      </trkpt>
      <trkpt lat="46.38407" lon="4.78078">
        <ele>248</ele>
        <time>2022-08-22T20:03:26Z</time>
      </trkpt>
      <trkpt lat="46.38413" lon="4.78061">
        <ele>251</ele>
        <time>2022-08-22T20:03:30Z</time>
      </trkpt>
      <trkpt lat="46.384" lon="4.78024">
        <ele>253</ele>
        <time>2022-08-22T20:03:36Z</time>
      </trkpt>
      <trkpt lat="46.38386" lon="4.78004">
        <ele>253</ele>
        <time>2022-08-22T20:03:41Z</time>
      </trkpt>
      <trkpt lat="46.38376" lon="4.77924">
        <ele>254</ele>
        <time>2022-08-22T20:03:54Z</time>
      </trkpt>
      <trkpt lat="46.38377" lon="4.77864">
        <ele>255</ele>
        <time>2022-08-22T20:04:04Z</time>
      </trkpt>
      <trkpt lat="46.38382" lon="4.77848">
        <ele>256</ele>
        <time>2022-08-22T20:04:06Z</time>
      </trkpt>
      <trkpt lat="46.38382" lon="4.77824">
        <ele>256</ele>
        <time>2022-08-22T20:04:10Z</time>
      </trkpt>
      <trkpt lat="46.38377" lon="4.77804">
        <ele>255</ele>
        <time>2022-08-22T20:04:14Z</time>
      </trkpt>
      <trkpt lat="46.38376" lon="4.77767">
        <ele>256</ele>
        <time>2022-08-22T20:04:20Z</time>
      </trkpt>
      <trkpt lat="46.38379" lon="4.77754">
        <ele>256</ele>
        <time>2022-08-22T20:04:22Z</time>
      </trkpt>
      <trkpt lat="46.38405" lon="4.7773">
        <ele>261</ele>
        <time>2022-08-22T20:04:29Z</time>
      </trkpt>
      <trkpt lat="46.38419" lon="4.77713">
        <ele>264</ele>
        <time>2022-08-22T20:04:33Z</time>
      </trkpt>
      <trkpt lat="46.38428" lon="4.77689">
        <ele>265</ele>
        <time>2022-08-22T20:04:38Z</time>
      </trkpt>
      <trkpt lat="46.38405" lon="4.77613">
        <ele>265</ele>
        <time>2022-08-22T20:04:51Z</time>
      </trkpt>
      <trkpt lat="46.38373" lon="4.77558">
        <ele>262</ele>
        <time>2022-08-22T20:05:03Z</time>
      </trkpt>
      <trkpt lat="46.38357" lon="4.7749">
        <ele>263</ele>
        <time>2022-08-22T20:05:14Z</time>
      </trkpt>
      <trkpt lat="46.38353" lon="4.77475">
        <ele>263</ele>
        <time>2022-08-22T20:05:17Z</time>
      </trkpt>
      <trkpt lat="46.3834" lon="4.77353">
        <ele>263</ele>
        <time>2022-08-22T20:05:37Z</time>
      </trkpt>
      <trkpt lat="46.38355" lon="4.77308">
        <ele>265</ele>
        <time>2022-08-22T20:05:45Z</time>
      </trkpt>
      <trkpt lat="46.3837" lon="4.77289">
        <ele>267</ele>
        <time>2022-08-22T20:05:49Z</time>
      </trkpt>
      <trkpt lat="46.3838" lon="4.77261">
        <ele>267</ele>
        <time>2022-08-22T20:05:55Z</time>
      </trkpt>
      <trkpt lat="46.38412" lon="4.77234">
        <ele>270</ele>
        <time>2022-08-22T20:06:03Z</time>
      </trkpt>
      <trkpt lat="46.38438" lon="4.77202">
        <ele>271</ele>
        <time>2022-08-22T20:06:11Z</time>
      </trkpt>
      <trkpt lat="46.38441" lon="4.77189">
        <ele>270</ele>
        <time>2022-08-22T20:06:13Z</time>
      </trkpt>
      <trkpt lat="46.38459" lon="4.7716">
        <ele>271</ele>
        <time>2022-08-22T20:06:20Z</time>
      </trkpt>
      <trkpt lat="46.38494" lon="4.77135">
        <ele>275</ele>
        <time>2022-08-22T20:06:29Z</time>
      </trkpt>
      <trkpt lat="46.3853" lon="4.77121">
        <ele>278</ele>
        <time>2022-08-22T20:06:37Z</time>
      </trkpt>
      <trkpt lat="46.38579" lon="4.77053">
        <ele>280</ele>
        <time>2022-08-22T20:06:53Z</time>
      </trkpt>
      <trkpt lat="46.38657" lon="4.76956">
        <ele>283</ele>
        <time>2022-08-22T20:07:17Z</time>
      </trkpt>
      <trkpt lat="46.38691" lon="4.76876">
        <ele>283</ele>
        <time>2022-08-22T20:07:32Z</time>
      </trkpt>
      <trkpt lat="46.38716" lon="4.76803">
        <ele>285</ele>
        <time>2022-08-22T20:07:46Z</time>
      </trkpt>
      <trkpt lat="46.38716" lon="4.76724">
        <ele>285</ele>
        <time>2022-08-22T20:07:58Z</time>
      </trkpt>
      <trkpt lat="46.38725" lon="4.76663">
        <ele>287</ele>
        <time>2022-08-22T20:08:08Z</time>
      </trkpt>
      <trkpt lat="46.38716" lon="4.7659">
        <ele>290</ele>
        <time>2022-08-22T20:08:20Z</time>
      </trkpt>
      <trkpt lat="46.38722" lon="4.76477">
        <ele>298</ele>
        <time>2022-08-22T20:08:39Z</time>
      </trkpt>
      <trkpt lat="46.38718" lon="4.76247">
        <ele>308</ele>
        <time>2022-08-22T20:09:16Z</time>
      </trkpt>
      <trkpt lat="46.38734" lon="4.76195">
        <ele>312</ele>
        <time>2022-08-22T20:09:25Z</time>
      </trkpt>
      <trkpt lat="46.38756" lon="4.76117">
        <ele>317</ele>
        <time>2022-08-22T20:09:38Z</time>
      </trkpt>
      <trkpt lat="46.38782" lon="4.76065">
        <ele>319</ele>
        <time>2022-08-22T20:09:49Z</time>
      </trkpt>
      <trkpt lat="46.38792" lon="4.76026">
        <ele>319</ele>
        <time>2022-08-22T20:09:55Z</time>
      </trkpt>
      <trkpt lat="46.3874" lon="4.76017">
        <ele>310</ele>
        <time>2022-08-22T20:10:08Z</time>
      </trkpt>
      <trkpt lat="46.38724" lon="4.76017">
        <ele>305</ele>
        <time>2022-08-22T20:10:11Z</time>
      </trkpt>
      <trkpt lat="46.38714" lon="4.76038">
        <ele>303</ele>
        <time>2022-08-22T20:10:15Z</time>
      </trkpt>
      <trkpt lat="46.3869" lon="4.76102">
        <ele>300</ele>
        <time>2022-08-22T20:10:27Z</time>
      </trkpt>
      <trkpt lat="46.38684" lon="4.76103">
        <ele>299</ele>
        <time>2022-08-22T20:10:29Z</time>
      </trkpt>
      <trkpt lat="46.38681" lon="4.76093">
        <ele>297</ele>
        <time>2022-08-22T20:10:30Z</time>
      </trkpt>
      <trkpt lat="46.38694" lon="4.76036">
        <ele>298</ele>
        <time>2022-08-22T20:10:40Z</time>
      </trkpt>
      <trkpt lat="46.38699" lon="4.75972">
        <ele>296</ele>
        <time>2022-08-22T20:10:50Z</time>
      </trkpt>
      <trkpt lat="46.38713" lon="4.75898">
        <ele>297</ele>
        <time>2022-08-22T20:11:03Z</time>
      </trkpt>
      <trkpt lat="46.38718" lon="4.75853">
        <ele>295</ele>
        <time>2022-08-22T20:11:10Z</time>
      </trkpt>
      <trkpt lat="46.38725" lon="4.75808">
        <ele>292</ele>
        <time>2022-08-22T20:11:18Z</time>
      </trkpt>
      <trkpt lat="46.38738" lon="4.75766">
        <ele>290</ele>
        <time>2022-08-22T20:11:25Z</time>
      </trkpt>
      <trkpt lat="46.38754" lon="4.75698">
        <ele>286</ele>
        <time>2022-08-22T20:11:37Z</time>
      </trkpt>
      <trkpt lat="46.38765" lon="4.75668">
        <ele>285</ele>
        <time>2022-08-22T20:11:42Z</time>
      </trkpt>
      <trkpt lat="46.3878" lon="4.75661">
        <ele>286</ele>
        <time>2022-08-22T20:11:46Z</time>
      </trkpt>
      <trkpt lat="46.38796" lon="4.75653">
        <ele>288</ele>
        <time>2022-08-22T20:11:50Z</time>
      </trkpt>
      <trkpt lat="46.3882" lon="4.75646">
        <ele>291</ele>
        <time>2022-08-22T20:11:55Z</time>
      </trkpt>
      <trkpt lat="46.38836" lon="4.75631">
        <ele>293</ele>
        <time>2022-08-22T20:12:00Z</time>
      </trkpt>
      <trkpt lat="46.38849" lon="4.75635">
        <ele>295</ele>
        <time>2022-08-22T20:12:03Z</time>
      </trkpt>
      <trkpt lat="46.38861" lon="4.75631">
        <ele>297</ele>
        <time>2022-08-22T20:12:06Z</time>
      </trkpt>
      <trkpt lat="46.3889" lon="4.75642">
        <ele>301</ele>
        <time>2022-08-22T20:12:13Z</time>
      </trkpt>
      <trkpt lat="46.3891" lon="4.75643">
        <ele>304</ele>
        <time>2022-08-22T20:12:17Z</time>
      </trkpt>
      <trkpt lat="46.38935" lon="4.75654">
        <ele>306</ele>
        <time>2022-08-22T20:12:24Z</time>
      </trkpt>
      <trkpt lat="46.38986" lon="4.75629">
        <ele>314</ele>
        <time>2022-08-22T20:12:36Z</time>
      </trkpt>
      <trkpt lat="46.38993" lon="4.75626">
        <ele>315</ele>
        <time>2022-08-22T20:12:38Z</time>
      </trkpt>
      <trkpt lat="46.39033" lon="4.75565">
        <ele>320</ele>
        <time>2022-08-22T20:12:51Z</time>
      </trkpt>
      <trkpt lat="46.39056" lon="4.75539">
        <ele>322</ele>
        <time>2022-08-22T20:12:58Z</time>
      </trkpt>
      <trkpt lat="46.39077" lon="4.75488">
        <ele>324</ele>
        <time>2022-08-22T20:13:08Z</time>
      </trkpt>
      <trkpt lat="46.39106" lon="4.75464">
        <ele>325</ele>
        <time>2022-08-22T20:13:16Z</time>
      </trkpt>
      <trkpt lat="46.39116" lon="4.75469">
        <ele>326</ele>
        <time>2022-08-22T20:13:18Z</time>
      </trkpt>
      <trkpt lat="46.39147" lon="4.75453">
        <ele>328</ele>
        <time>2022-08-22T20:13:26Z</time>
      </trkpt>
      <trkpt lat="46.39156" lon="4.75455">
        <ele>329</ele>
        <time>2022-08-22T20:13:28Z</time>
      </trkpt>
      <trkpt lat="46.3921" lon="4.75471">
        <ele>335</ele>
        <time>2022-08-22T20:13:41Z</time>
      </trkpt>
      <trkpt lat="46.39223" lon="4.75472">
        <ele>337</ele>
        <time>2022-08-22T20:13:44Z</time>
      </trkpt>
      <trkpt lat="46.39241" lon="4.75465">
        <ele>338</ele>
        <time>2022-08-22T20:13:48Z</time>
      </trkpt>
      <trkpt lat="46.3926" lon="4.75496">
        <ele>342</ele>
        <time>2022-08-22T20:13:55Z</time>
      </trkpt>
      <trkpt lat="46.3927" lon="4.75526">
        <ele>345</ele>
        <time>2022-08-22T20:14:00Z</time>
      </trkpt>
      <trkpt lat="46.39277" lon="4.75548">
        <ele>347</ele>
        <time>2022-08-22T20:14:04Z</time>
      </trkpt>
      <trkpt lat="46.39292" lon="4.75576">
        <ele>351</ele>
        <time>2022-08-22T20:14:10Z</time>
      </trkpt>
      <trkpt lat="46.39313" lon="4.75622">
        <ele>358</ele>
        <time>2022-08-22T20:14:19Z</time>
      </trkpt>
      <trkpt lat="46.39341" lon="4.75628">
        <ele>362</ele>
        <time>2022-08-22T20:14:25Z</time>
      </trkpt>
      <trkpt lat="46.39363" lon="4.75648">
        <ele>367</ele>
        <time>2022-08-22T20:14:31Z</time>
      </trkpt>
      <trkpt lat="46.39376" lon="4.7566">
        <ele>371</ele>
        <time>2022-08-22T20:14:35Z</time>
      </trkpt>
      <trkpt lat="46.39376" lon="4.75683">
        <ele>372</ele>
        <time>2022-08-22T20:14:39Z</time>
      </trkpt>
      <trkpt lat="46.3938" lon="4.75701">
        <ele>373</ele>
        <time>2022-08-22T20:14:42Z</time>
      </trkpt>
      <trkpt lat="46.39402" lon="4.75719">
        <ele>376</ele>
        <time>2022-08-22T20:14:48Z</time>
      </trkpt>
      <trkpt lat="46.39419" lon="4.75713">
        <ele>378</ele>
        <time>2022-08-22T20:14:52Z</time>
      </trkpt>
      <trkpt lat="46.39429" lon="4.7571">
        <ele>379</ele>
        <time>2022-08-22T20:14:54Z</time>
      </trkpt>
      <trkpt lat="46.39456" lon="4.75688">
        <ele>380</ele>
        <time>2022-08-22T20:15:01Z</time>
      </trkpt>
      <trkpt lat="46.39462" lon="4.75674">
        <ele>380</ele>
        <time>2022-08-22T20:15:04Z</time>
      </trkpt>
      <trkpt lat="46.39497" lon="4.75648">
        <ele>381</ele>
        <time>2022-08-22T20:15:13Z</time>
      </trkpt>
      <trkpt lat="46.39547" lon="4.75643">
        <ele>384</ele>
        <time>2022-08-22T20:15:25Z</time>
      </trkpt>
      <trkpt lat="46.39582" lon="4.75631">
        <ele>386</ele>
        <time>2022-08-22T20:15:33Z</time>
      </trkpt>
      <trkpt lat="46.39634" lon="4.75622">
        <ele>389</ele>
        <time>2022-08-22T20:15:45Z</time>
      </trkpt>
      <trkpt lat="46.39649" lon="4.75625">
        <ele>390</ele>
        <time>2022-08-22T20:15:49Z</time>
      </trkpt>
      <trkpt lat="46.39668" lon="4.75628">
        <ele>391</ele>
        <time>2022-08-22T20:15:53Z</time>
      </trkpt>
      <trkpt lat="46.39675" lon="4.75634">
        <ele>391</ele>
        <time>2022-08-22T20:15:55Z</time>
      </trkpt>
      <trkpt lat="46.39668" lon="4.75628">
        <ele>391</ele>
        <time>2022-08-22T20:15:57Z</time>
      </trkpt>
      <trkpt lat="46.39649" lon="4.75625">
        <ele>390</ele>
        <time>2022-08-22T20:16:02Z</time>
      </trkpt>
      <trkpt lat="46.39686" lon="4.75608">
        <ele>391</ele>
        <time>2022-08-22T20:16:11Z</time>
      </trkpt>
      <trkpt lat="46.39683" lon="4.75572">
        <ele>390</ele>
        <time>2022-08-22T20:16:17Z</time>
      </trkpt>
      <trkpt lat="46.39687" lon="4.75555">
        <ele>390</ele>
        <time>2022-08-22T20:16:20Z</time>
      </trkpt>
      <trkpt lat="46.39692" lon="4.75555">
        <ele>390</ele>
        <time>2022-08-22T20:16:21Z</time>
      </trkpt>
      <trkpt lat="46.39697" lon="4.75555">
        <ele>390</ele>
        <time>2022-08-22T20:16:22Z</time>
      </trkpt>
      <trkpt lat="46.3971" lon="4.75576">
        <ele>392</ele>
        <time>2022-08-22T20:16:26Z</time>
      </trkpt>
      <trkpt lat="46.39719" lon="4.75599">
        <ele>393</ele>
        <time>2022-08-22T20:16:31Z</time>
      </trkpt>
      <trkpt lat="46.39751" lon="4.75639">
        <ele>394</ele>
        <time>2022-08-22T20:16:41Z</time>
      </trkpt>
      <trkpt lat="46.39775" lon="4.75668">
        <ele>395</ele>
        <time>2022-08-22T20:16:48Z</time>
      </trkpt>
      <trkpt lat="46.39775" lon="4.75691">
        <ele>395</ele>
        <time>2022-08-22T20:16:52Z</time>
      </trkpt>
      <trkpt lat="46.39791" lon="4.75693">
        <ele>396</ele>
        <time>2022-08-22T20:16:55Z</time>
      </trkpt>
      <trkpt lat="46.39812" lon="4.757">
        <ele>396</ele>
        <time>2022-08-22T20:17:00Z</time>
      </trkpt>
      <trkpt lat="46.39835" lon="4.75707">
        <ele>397</ele>
        <time>2022-08-22T20:17:06Z</time>
      </trkpt>
      <trkpt lat="46.39879" lon="4.75741">
        <ele>395</ele>
        <time>2022-08-22T20:17:17Z</time>
      </trkpt>
      <trkpt lat="46.40087" lon="4.75924">
        <ele>375</ele>
        <time>2022-08-22T20:18:14Z</time>
      </trkpt>
      <trkpt lat="46.40081" lon="4.76038">
        <ele>372</ele>
        <time>2022-08-22T20:18:33Z</time>
      </trkpt>
      <trkpt lat="46.40116" lon="4.76053">
        <ele>367</ele>
        <time>2022-08-22T20:18:41Z</time>
      </trkpt>
      <trkpt lat="46.40121" lon="4.76085">
        <ele>366</ele>
        <time>2022-08-22T20:18:46Z</time>
      </trkpt>
      <trkpt lat="46.40118" lon="4.76124">
        <ele>365</ele>
        <time>2022-08-22T20:18:53Z</time>
      </trkpt>
      <trkpt lat="46.40113" lon="4.76182">
        <ele>362</ele>
        <time>2022-08-22T20:19:02Z</time>
      </trkpt>
      <trkpt lat="46.40171" lon="4.76261">
        <ele>352</ele>
        <time>2022-08-22T20:19:21Z</time>
      </trkpt>
      <trkpt lat="46.40175" lon="4.76312">
        <ele>349</ele>
        <time>2022-08-22T20:19:29Z</time>
      </trkpt>
      <trkpt lat="46.40187" lon="4.76343">
        <ele>345</ele>
        <time>2022-08-22T20:19:35Z</time>
      </trkpt>
      <trkpt lat="46.40232" lon="4.76435">
        <ele>337</ele>
        <time>2022-08-22T20:19:53Z</time>
      </trkpt>
      <trkpt lat="46.40293" lon="4.76489">
        <ele>325</ele>
        <time>2022-08-22T20:20:10Z</time>
      </trkpt>
      <trkpt lat="46.40354" lon="4.76639">
        <ele>316</ele>
        <time>2022-08-22T20:20:38Z</time>
      </trkpt>
      <trkpt lat="46.40417" lon="4.76895">
        <ele>307</ele>
        <time>2022-08-22T20:21:21Z</time>
      </trkpt>
      <trkpt lat="46.40417" lon="4.76948">
        <ele>307</ele>
        <time>2022-08-22T20:21:30Z</time>
      </trkpt>
      <trkpt lat="46.40442" lon="4.7701">
        <ele>300</ele>
        <time>2022-08-22T20:21:42Z</time>
      </trkpt>
      <trkpt lat="46.40442" lon="4.77237">
        <ele>286</ele>
        <time>2022-08-22T20:22:18Z</time>
      </trkpt>
      <trkpt lat="46.406" lon="4.77242">
        <ele>260</ele>
        <time>2022-08-22T20:22:55Z</time>
      </trkpt>
      <trkpt lat="46.40663" lon="4.77236">
        <ele>251</ele>
        <time>2022-08-22T20:23:10Z</time>
      </trkpt>
      <trkpt lat="46.40671" lon="4.771">
        <ele>253</ele>
        <time>2022-08-22T20:23:32Z</time>
      </trkpt>
      <trkpt lat="46.40664" lon="4.76934">
        <ele>256</ele>
        <time>2022-08-22T20:23:59Z</time>
      </trkpt>
      <trkpt lat="46.40629" lon="4.76717">
        <ele>263</ele>
        <time>2022-08-22T20:24:34Z</time>
      </trkpt>
      <trkpt lat="46.40609" lon="4.76651">
        <ele>267</ele>
        <time>2022-08-22T20:24:46Z</time>
      </trkpt>
      <trkpt lat="46.40611" lon="4.76641">
        <ele>266</ele>
        <time>2022-08-22T20:24:48Z</time>
      </trkpt>
      <trkpt lat="46.40567" lon="4.7648">
        <ele>270</ele>
        <time>2022-08-22T20:25:16Z</time>
      </trkpt>
      <trkpt lat="46.4056" lon="4.76397">
        <ele>268</ele>
        <time>2022-08-22T20:25:29Z</time>
      </trkpt>
      <trkpt lat="46.40548" lon="4.76348">
        <ele>268</ele>
        <time>2022-08-22T20:25:37Z</time>
      </trkpt>
      <trkpt lat="46.40463" lon="4.76022">
        <ele>262</ele>
        <time>2022-08-22T20:26:34Z</time>
      </trkpt>
      <trkpt lat="46.40459" lon="4.7598">
        <ele>259</ele>
        <time>2022-08-22T20:26:40Z</time>
      </trkpt>
      <trkpt lat="46.40464" lon="4.75955">
        <ele>255</ele>
        <time>2022-08-22T20:26:45Z</time>
      </trkpt>
      <trkpt lat="46.40472" lon="4.75913">
        <ele>250</ele>
        <time>2022-08-22T20:26:52Z</time>
      </trkpt>
      <trkpt lat="46.40478" lon="4.7589">
        <ele>247</ele>
        <time>2022-08-22T20:26:56Z</time>
      </trkpt>
      <trkpt lat="46.40469" lon="4.75838">
        <ele>248</ele>
        <time>2022-08-22T20:27:04Z</time>
      </trkpt>
      <trkpt lat="46.40453" lon="4.75784">
        <ele>250</ele>
        <time>2022-08-22T20:27:14Z</time>
      </trkpt>
      <trkpt lat="46.40431" lon="4.75729">
        <ele>251</ele>
        <time>2022-08-22T20:27:24Z</time>
      </trkpt>
      <trkpt lat="46.40411" lon="4.75652">
        <ele>249</ele>
        <time>2022-08-22T20:27:37Z</time>
      </trkpt>
      <trkpt lat="46.40402" lon="4.75605">
        <ele>247</ele>
        <time>2022-08-22T20:27:45Z</time>
      </trkpt>
      <trkpt lat="46.40394" lon="4.75573">
        <ele>246</ele>
        <time>2022-08-22T20:27:50Z</time>
      </trkpt>
      <trkpt lat="46.40387" lon="4.75534">
        <ele>246</ele>
        <time>2022-08-22T20:27:57Z</time>
      </trkpt>
      <trkpt lat="46.40375" lon="4.75492">
        <ele>245</ele>
        <time>2022-08-22T20:28:04Z</time>
      </trkpt>
      <trkpt lat="46.40365" lon="4.75419">
        <ele>244</ele>
        <time>2022-08-22T20:28:16Z</time>
      </trkpt>
      <trkpt lat="46.40363" lon="4.75346">
        <ele>242</ele>
        <time>2022-08-22T20:28:28Z</time>
      </trkpt>
      <trkpt lat="46.4036" lon="4.75314">
        <ele>242</ele>
        <time>2022-08-22T20:28:33Z</time>
      </trkpt>
      <trkpt lat="46.40351" lon="4.75276">
        <ele>242</ele>
        <time>2022-08-22T20:28:40Z</time>
      </trkpt>
      <trkpt lat="46.40344" lon="4.75229">
        <ele>241</ele>
        <time>2022-08-22T20:28:47Z</time>
      </trkpt>
      <trkpt lat="46.40336" lon="4.75194">
        <ele>241</ele>
        <time>2022-08-22T20:28:53Z</time>
      </trkpt>
      <trkpt lat="46.40324" lon="4.75168">
        <ele>242</ele>
        <time>2022-08-22T20:28:58Z</time>
      </trkpt>
      <trkpt lat="46.40309" lon="4.75164">
        <ele>242</ele>
        <time>2022-08-22T20:29:02Z</time>
      </trkpt>
      <trkpt lat="46.40297" lon="4.75154">
        <ele>243</ele>
        <time>2022-08-22T20:29:05Z</time>
      </trkpt>
      <trkpt lat="46.40249" lon="4.75096">
        <ele>244</ele>
        <time>2022-08-22T20:29:20Z</time>
      </trkpt>
      <trkpt lat="46.40203" lon="4.75029">
        <ele>246</ele>
        <time>2022-08-22T20:29:35Z</time>
      </trkpt>
      <trkpt lat="46.40183" lon="4.74991">
        <ele>246</ele>
        <time>2022-08-22T20:29:43Z</time>
      </trkpt>
      <trkpt lat="46.40134" lon="4.74865">
        <ele>248</ele>
        <time>2022-08-22T20:30:06Z</time>
      </trkpt>
      <trkpt lat="46.40084" lon="4.74732">
        <ele>251</ele>
        <time>2022-08-22T20:30:30Z</time>
      </trkpt>
      <trkpt lat="46.40074" lon="4.74721">
        <ele>251</ele>
        <time>2022-08-22T20:30:33Z</time>
      </trkpt>
      <trkpt lat="46.40025" lon="4.74676">
        <ele>253</ele>
        <time>2022-08-22T20:30:47Z</time>
      </trkpt>
      <trkpt lat="46.39973" lon="4.74632">
        <ele>254</ele>
        <time>2022-08-22T20:31:01Z</time>
      </trkpt>
      <trkpt lat="46.39961" lon="4.74616">
        <ele>255</ele>
        <time>2022-08-22T20:31:05Z</time>
      </trkpt>
      <trkpt lat="46.39973" lon="4.74632">
        <ele>254</ele>
        <time>2022-08-22T20:31:09Z</time>
      </trkpt>
      <trkpt lat="46.39982" lon="4.74616">
        <ele>254</ele>
        <time>2022-08-22T20:31:12Z</time>
      </trkpt>
      <trkpt lat="46.39996" lon="4.74597">
        <ele>253</ele>
        <time>2022-08-22T20:31:16Z</time>
      </trkpt>
      <trkpt lat="46.40008" lon="4.74576">
        <ele>253</ele>
        <time>2022-08-22T20:31:21Z</time>
      </trkpt>
      <trkpt lat="46.40017" lon="4.7456">
        <ele>254</ele>
        <time>2022-08-22T20:31:24Z</time>
      </trkpt>
      <trkpt lat="46.39983" lon="4.74531">
        <ele>254</ele>
        <time>2022-08-22T20:31:33Z</time>
      </trkpt>
      <trkpt lat="46.39965" lon="4.74511">
        <ele>255</ele>
        <time>2022-08-22T20:31:39Z</time>
      </trkpt>
      <trkpt lat="46.39949" lon="4.74486">
        <ele>255</ele>
        <time>2022-08-22T20:31:44Z</time>
      </trkpt>
      <trkpt lat="46.39944" lon="4.7447">
        <ele>256</ele>
        <time>2022-08-22T20:31:47Z</time>
      </trkpt>
      <trkpt lat="46.39947" lon="4.74451">
        <ele>256</ele>
        <time>2022-08-22T20:31:50Z</time>
      </trkpt>
      <trkpt lat="46.39958" lon="4.74429">
        <ele>256</ele>
        <time>2022-08-22T20:31:54Z</time>
      </trkpt>
      <trkpt lat="46.39967" lon="4.74417">
        <ele>257</ele>
        <time>2022-08-22T20:31:57Z</time>
      </trkpt>
      <trkpt lat="46.39977" lon="4.74408">
        <ele>257</ele>
        <time>2022-08-22T20:32:00Z</time>
      </trkpt>
      <trkpt lat="46.39984" lon="4.74407">
        <ele>257</ele>
        <time>2022-08-22T20:32:02Z</time>
      </trkpt>
      <trkpt lat="46.40001" lon="4.74415">
        <ele>257</ele>
        <time>2022-08-22T20:32:06Z</time>
      </trkpt>
      <trkpt lat="46.40034" lon="4.74448">
        <ele>257</ele>
        <time>2022-08-22T20:32:15Z</time>
      </trkpt>
      <trkpt lat="46.40037" lon="4.74439">
        <ele>257</ele>
        <time>2022-08-22T20:32:17Z</time>
      </trkpt>
      <trkpt lat="46.40037" lon="4.74433">
        <ele>258</ele>
        <time>2022-08-22T20:32:18Z</time>
      </trkpt>
      <trkpt lat="46.40033" lon="4.74421">
        <ele>258</ele>
        <time>2022-08-22T20:32:20Z</time>
      </trkpt>
      <trkpt lat="46.40015" lon="4.74381">
        <ele>258</ele>
        <time>2022-08-22T20:32:28Z</time>
      </trkpt>
      <trkpt lat="46.40029" lon="4.74381">
        <ele>259</ele>
        <time>2022-08-22T20:32:31Z</time>
      </trkpt>
      <trkpt lat="46.40038" lon="4.74368">
        <ele>259</ele>
        <time>2022-08-22T20:32:34Z</time>
      </trkpt>
      <trkpt lat="46.40039" lon="4.74362">
        <ele>259</ele>
        <time>2022-08-22T20:32:35Z</time>
      </trkpt>
      <trkpt lat="46.40045" lon="4.74358">
        <ele>260</ele>
        <time>2022-08-22T20:32:36Z</time>
      </trkpt>
      <trkpt lat="46.40138" lon="4.74341">
        <ele>269</ele>
        <time>2022-08-22T20:32:58Z</time>
      </trkpt>
      <trkpt lat="46.40148" lon="4.74339">
        <ele>270</ele>
        <time>2022-08-22T20:33:01Z</time>
      </trkpt>
      <trkpt lat="46.40166" lon="4.74331">
        <ele>273</ele>
        <time>2022-08-22T20:33:05Z</time>
      </trkpt>
      <trkpt lat="46.40187" lon="4.74306">
        <ele>273</ele>
        <time>2022-08-22T20:33:11Z</time>
      </trkpt>
      <trkpt lat="46.40198" lon="4.74303">
        <ele>274</ele>
        <time>2022-08-22T20:33:14Z</time>
      </trkpt>
      <trkpt lat="46.4021" lon="4.74303">
        <ele>275</ele>
        <time>2022-08-22T20:33:17Z</time>
      </trkpt>
      <trkpt lat="46.40268" lon="4.74329">
        <ele>280</ele>
        <time>2022-08-22T20:33:31Z</time>
      </trkpt>
      <trkpt lat="46.40328" lon="4.74148">
        <ele>273</ele>
        <time>2022-08-22T20:34:03Z</time>
      </trkpt>
      <trkpt lat="46.4037" lon="4.74152">
        <ele>273</ele>
        <time>2022-08-22T20:34:13Z</time>
      </trkpt>
      <trkpt lat="46.40392" lon="4.74042">
        <ele>278</ele>
        <time>2022-08-22T20:34:32Z</time>
      </trkpt>
      <trkpt lat="46.40394" lon="4.74047">
        <ele>278</ele>
        <time>2022-08-22T20:34:33Z</time>
      </trkpt>
      <trkpt lat="46.40402" lon="4.74013">
        <ele>281</ele>
        <time>2022-08-22T20:34:38Z</time>
      </trkpt>
      <trkpt lat="46.40423" lon="4.73864">
        <ele>290</ele>
        <time>2022-08-22T20:35:03Z</time>
      </trkpt>
      <trkpt lat="46.40436" lon="4.73787">
        <ele>293</ele>
        <time>2022-08-22T20:35:16Z</time>
      </trkpt>
      <trkpt lat="46.40469" lon="4.73645">
        <ele>300</ele>
        <time>2022-08-22T20:35:40Z</time>
      </trkpt>
      <trkpt lat="46.40473" lon="4.73615">
        <ele>301</ele>
        <time>2022-08-22T20:35:45Z</time>
      </trkpt>
      <trkpt lat="46.40488" lon="4.73604">
        <ele>302</ele>
        <time>2022-08-22T20:35:49Z</time>
      </trkpt>
      <trkpt lat="46.40545" lon="4.73525">
        <ele>309</ele>
        <time>2022-08-22T20:36:07Z</time>
      </trkpt>
      <trkpt lat="46.40637" lon="4.73392">
        <ele>326</ele>
        <time>2022-08-22T20:36:37Z</time>
      </trkpt>
      <trkpt lat="46.40662" lon="4.7333">
        <ele>334</ele>
        <time>2022-08-22T20:36:49Z</time>
      </trkpt>
      <trkpt lat="46.40673" lon="4.73324">
        <ele>336</ele>
        <time>2022-08-22T20:36:52Z</time>
      </trkpt>
      <trkpt lat="46.4068" lon="4.73322">
        <ele>337</ele>
        <time>2022-08-22T20:36:53Z</time>
      </trkpt>
      <trkpt lat="46.4071" lon="4.73326">
        <ele>343</ele>
        <time>2022-08-22T20:37:00Z</time>
      </trkpt>
      <trkpt lat="46.40742" lon="4.73335">
        <ele>348</ele>
        <time>2022-08-22T20:37:08Z</time>
      </trkpt>
      <trkpt lat="46.40766" lon="4.73359">
        <ele>350</ele>
        <time>2022-08-22T20:37:15Z</time>
      </trkpt>
      <trkpt lat="46.40777" lon="4.73361">
        <ele>351</ele>
        <time>2022-08-22T20:37:17Z</time>
      </trkpt>
      <trkpt lat="46.40796" lon="4.73349">
        <ele>355</ele>
        <time>2022-08-22T20:37:22Z</time>
      </trkpt>
      <trkpt lat="46.40828" lon="4.73342">
        <ele>360</ele>
        <time>2022-08-22T20:37:30Z</time>
      </trkpt>
      <trkpt lat="46.40861" lon="4.73341">
        <ele>364</ele>
        <time>2022-08-22T20:37:37Z</time>
      </trkpt>
      <trkpt lat="46.40876" lon="4.73335">
        <ele>366</ele>
        <time>2022-08-22T20:37:41Z</time>
      </trkpt>
      <trkpt lat="46.40881" lon="4.73333">
        <ele>367</ele>
        <time>2022-08-22T20:37:42Z</time>
      </trkpt>
      <trkpt lat="46.40912" lon="4.73294">
        <ele>374</ele>
        <time>2022-08-22T20:37:52Z</time>
      </trkpt>
      <trkpt lat="46.40973" lon="4.73292">
        <ele>380</ele>
        <time>2022-08-22T20:38:06Z</time>
      </trkpt>
      <trkpt lat="46.40994" lon="4.73264">
        <ele>385</ele>
        <time>2022-08-22T20:38:13Z</time>
      </trkpt>
      <trkpt lat="46.41009" lon="4.73236">
        <ele>389</ele>
        <time>2022-08-22T20:38:18Z</time>
      </trkpt>
      <trkpt lat="46.41028" lon="4.7318">
        <ele>395</ele>
        <time>2022-08-22T20:38:29Z</time>
      </trkpt>
      <trkpt lat="46.41053" lon="4.73124">
        <ele>399</ele>
        <time>2022-08-22T20:38:39Z</time>
      </trkpt>
      <trkpt lat="46.41066" lon="4.73088">
        <ele>400</ele>
        <time>2022-08-22T20:38:46Z</time>
      </trkpt>
      <trkpt lat="46.4108" lon="4.73071">
        <ele>400</ele>
        <time>2022-08-22T20:38:50Z</time>
      </trkpt>
      <trkpt lat="46.41139" lon="4.73065">
        <ele>406</ele>
        <time>2022-08-22T20:39:04Z</time>
      </trkpt>
      <trkpt lat="46.41174" lon="4.73055">
        <ele>409</ele>
        <time>2022-08-22T20:39:12Z</time>
      </trkpt>
      <trkpt lat="46.41202" lon="4.73048">
        <ele>412</ele>
        <time>2022-08-22T20:39:19Z</time>
      </trkpt>
      <trkpt lat="46.41226" lon="4.73048">
        <ele>414</ele>
        <time>2022-08-22T20:39:24Z</time>
      </trkpt>
      <trkpt lat="46.41278" lon="4.73043">
        <ele>420</ele>
        <time>2022-08-22T20:39:37Z</time>
      </trkpt>
      <trkpt lat="46.41358" lon="4.73029">
        <ele>426</ele>
        <time>2022-08-22T20:39:55Z</time>
      </trkpt>
      <trkpt lat="46.41384" lon="4.7302">
        <ele>428</ele>
        <time>2022-08-22T20:40:02Z</time>
      </trkpt>
      <trkpt lat="46.41439" lon="4.72983">
        <ele>431</ele>
        <time>2022-08-22T20:40:16Z</time>
      </trkpt>
      <trkpt lat="46.41463" lon="4.72961">
        <ele>431</ele>
        <time>2022-08-22T20:40:22Z</time>
      </trkpt>
      <trkpt lat="46.41482" lon="4.72958">
        <ele>431</ele>
        <time>2022-08-22T20:40:27Z</time>
      </trkpt>
      <trkpt lat="46.41504" lon="4.72957">
        <ele>432</ele>
        <time>2022-08-22T20:40:32Z</time>
      </trkpt>
      <trkpt lat="46.41556" lon="4.72946">
        <ele>433</ele>
        <time>2022-08-22T20:40:44Z</time>
      </trkpt>
      <trkpt lat="46.4157" lon="4.72947">
        <ele>433</ele>
        <time>2022-08-22T20:40:48Z</time>
      </trkpt>
      <trkpt lat="46.4158" lon="4.72953">
        <ele>433</ele>
        <time>2022-08-22T20:40:50Z</time>
      </trkpt>
      <trkpt lat="46.41587" lon="4.72951">
        <ele>433</ele>
        <time>2022-08-22T20:40:52Z</time>
      </trkpt>
      <trkpt lat="46.41646" lon="4.72969">
        <ele>434</ele>
        <time>2022-08-22T20:41:06Z</time>
      </trkpt>
      <trkpt lat="46.41695" lon="4.72998">
        <ele>436</ele>
        <time>2022-08-22T20:41:18Z</time>
      </trkpt>
      <trkpt lat="46.4173" lon="4.73013">
        <ele>436</ele>
        <time>2022-08-22T20:41:27Z</time>
      </trkpt>
      <trkpt lat="46.41743" lon="4.73025">
        <ele>436</ele>
        <time>2022-08-22T20:41:30Z</time>
      </trkpt>
      <trkpt lat="46.41749" lon="4.73042">
        <ele>436</ele>
        <time>2022-08-22T20:41:33Z</time>
      </trkpt>
      <trkpt lat="46.41766" lon="4.73058">
        <ele>437</ele>
        <time>2022-08-22T20:41:38Z</time>
      </trkpt>
      <trkpt lat="46.4178" lon="4.73065">
        <ele>438</ele>
        <time>2022-08-22T20:41:42Z</time>
      </trkpt>
      <trkpt lat="46.41821" lon="4.73076">
        <ele>441</ele>
        <time>2022-08-22T20:41:51Z</time>
      </trkpt>
      <trkpt lat="46.41849" lon="4.73055">
        <ele>443</ele>
        <time>2022-08-22T20:41:59Z</time>
      </trkpt>
      <trkpt lat="46.41882" lon="4.7302">
        <ele>445</ele>
        <time>2022-08-22T20:42:08Z</time>
      </trkpt>
      <trkpt lat="46.41948" lon="4.72988">
        <ele>449</ele>
        <time>2022-08-22T20:42:25Z</time>
      </trkpt>
      <trkpt lat="46.42007" lon="4.72946">
        <ele>451</ele>
        <time>2022-08-22T20:42:40Z</time>
      </trkpt>
      <trkpt lat="46.42043" lon="4.72935">
        <ele>452</ele>
        <time>2022-08-22T20:42:48Z</time>
      </trkpt>
      <trkpt lat="46.4206" lon="4.7293">
        <ele>452</ele>
        <time>2022-08-22T20:42:53Z</time>
      </trkpt>
      <trkpt lat="46.42079" lon="4.72915">
        <ele>452</ele>
        <time>2022-08-22T20:42:58Z</time>
      </trkpt>
      <trkpt lat="46.42132" lon="4.72857">
        <ele>453</ele>
        <time>2022-08-22T20:43:13Z</time>
      </trkpt>
      <trkpt lat="46.42151" lon="4.72814">
        <ele>455</ele>
        <time>2022-08-22T20:43:21Z</time>
      </trkpt>
      <trkpt lat="46.42158" lon="4.72793">
        <ele>456</ele>
        <time>2022-08-22T20:43:25Z</time>
      </trkpt>
      <trkpt lat="46.42167" lon="4.7275">
        <ele>460</ele>
        <time>2022-08-22T20:43:32Z</time>
      </trkpt>
      <trkpt lat="46.42167" lon="4.72689">
        <ele>463</ele>
        <time>2022-08-22T20:43:42Z</time>
      </trkpt>
      <trkpt lat="46.4218" lon="4.72642">
        <ele>464</ele>
        <time>2022-08-22T20:43:50Z</time>
      </trkpt>
      <trkpt lat="46.42198" lon="4.72594">
        <ele>465</ele>
        <time>2022-08-22T20:43:59Z</time>
      </trkpt>
      <trkpt lat="46.42232" lon="4.72543">
        <ele>471</ele>
        <time>2022-08-22T20:44:10Z</time>
      </trkpt>
      <trkpt lat="46.42297" lon="4.72469">
        <ele>476</ele>
        <time>2022-08-22T20:44:30Z</time>
      </trkpt>
      <trkpt lat="46.42287" lon="4.72474">
        <ele>476</ele>
        <time>2022-08-22T20:44:32Z</time>
      </trkpt>
      <trkpt lat="46.4227" lon="4.72476">
        <ele>476</ele>
        <time>2022-08-22T20:44:36Z</time>
      </trkpt>
      <trkpt lat="46.42159" lon="4.72448">
        <ele>471</ele>
        <time>2022-08-22T20:45:03Z</time>
      </trkpt>
      <trkpt lat="46.4215" lon="4.72445">
        <ele>471</ele>
        <time>2022-08-22T20:45:05Z</time>
      </trkpt>
      <trkpt lat="46.42143" lon="4.72449">
        <ele>469</ele>
        <time>2022-08-22T20:45:06Z</time>
      </trkpt>
      <trkpt lat="46.42031" lon="4.72296">
        <ele>475</ele>
        <time>2022-08-22T20:45:42Z</time>
      </trkpt>
      <trkpt lat="46.41971" lon="4.72122">
        <ele>490</ele>
        <time>2022-08-22T20:46:14Z</time>
      </trkpt>
      <trkpt lat="46.4186" lon="4.71983">
        <ele>506</ele>
        <time>2022-08-22T20:46:48Z</time>
      </trkpt>
      <trkpt lat="46.41747" lon="4.71572">
        <ele>499</ele>
        <time>2022-08-22T20:47:59Z</time>
      </trkpt>
      <trkpt lat="46.41727" lon="4.71498">
        <ele>500</ele>
        <time>2022-08-22T20:48:12Z</time>
      </trkpt>
      <trkpt lat="46.417" lon="4.71475">
        <ele>495</ele>
        <time>2022-08-22T20:48:19Z</time>
      </trkpt>
      <trkpt lat="46.41681" lon="4.71399">
        <ele>495</ele>
        <time>2022-08-22T20:48:32Z</time>
      </trkpt>
      <trkpt lat="46.41677" lon="4.7134">
        <ele>495</ele>
        <time>2022-08-22T20:48:42Z</time>
      </trkpt>
      <trkpt lat="46.41684" lon="4.71311">
        <ele>496</ele>
        <time>2022-08-22T20:48:47Z</time>
      </trkpt>
      <trkpt lat="46.417" lon="4.71288">
        <ele>500</ele>
        <time>2022-08-22T20:48:52Z</time>
      </trkpt>
      <trkpt lat="46.41699" lon="4.71284">
        <ele>499</ele>
        <time>2022-08-22T20:48:53Z</time>
      </trkpt>
      <trkpt lat="46.41742" lon="4.71179">
        <ele>502</ele>
        <time>2022-08-22T20:49:12Z</time>
      </trkpt>
      <trkpt lat="46.4183" lon="4.71041">
        <ele>505</ele>
        <time>2022-08-22T20:49:43Z</time>
      </trkpt>
      <trkpt lat="46.41859" lon="4.70981">
        <ele>501</ele>
        <time>2022-08-22T20:49:54Z</time>
      </trkpt>
      <trkpt lat="46.41896" lon="4.70945">
        <ele>499</ele>
        <time>2022-08-22T20:50:05Z</time>
      </trkpt>
      <trkpt lat="46.419" lon="4.70946">
        <ele>500</ele>
        <time>2022-08-22T20:50:06Z</time>
      </trkpt>
      <trkpt lat="46.41924" lon="4.70934">
        <ele>502</ele>
        <time>2022-08-22T20:50:12Z</time>
      </trkpt>
      <trkpt lat="46.41989" lon="4.70912">
        <ele>505</ele>
        <time>2022-08-22T20:50:27Z</time>
      </trkpt>
      <trkpt lat="46.42035" lon="4.70917">
        <ele>507</ele>
        <time>2022-08-22T20:50:38Z</time>
      </trkpt>
      <trkpt lat="46.42061" lon="4.70933">
        <ele>511</ele>
        <time>2022-08-22T20:50:45Z</time>
      </trkpt>
      <trkpt lat="46.42111" lon="4.71046">
        <ele>530</ele>
        <time>2022-08-22T20:51:06Z</time>
      </trkpt>
      <trkpt lat="46.42142" lon="4.71094">
        <ele>536</ele>
        <time>2022-08-22T20:51:17Z</time>
      </trkpt>
      <trkpt lat="46.42149" lon="4.71103">
        <ele>538</ele>
        <time>2022-08-22T20:51:19Z</time>
      </trkpt>
      <trkpt lat="46.42172" lon="4.71129">
        <ele>541</ele>
        <time>2022-08-22T20:51:26Z</time>
      </trkpt>
      <trkpt lat="46.42196" lon="4.71176">
        <ele>549</ele>
        <time>2022-08-22T20:51:35Z</time>
      </trkpt>
      <trkpt lat="46.4223" lon="4.71228">
        <ele>557</ele>
        <time>2022-08-22T20:51:47Z</time>
      </trkpt>
      <trkpt lat="46.42246" lon="4.71248">
        <ele>561</ele>
        <time>2022-08-22T20:51:52Z</time>
      </trkpt>
      <trkpt lat="46.42296" lon="4.71248">
        <ele>563</ele>
        <time>2022-08-22T20:52:03Z</time>
      </trkpt>
      <trkpt lat="46.42318" lon="4.71274">
        <ele>567</ele>
        <time>2022-08-22T20:52:10Z</time>
      </trkpt>
      <trkpt lat="46.42343" lon="4.713">
        <ele>572</ele>
        <time>2022-08-22T20:52:17Z</time>
      </trkpt>
      <trkpt lat="46.4237" lon="4.71324">
        <ele>579</ele>
        <time>2022-08-22T20:52:25Z</time>
      </trkpt>
      <trkpt lat="46.42461" lon="4.7137">
        <ele>593</ele>
        <time>2022-08-22T20:52:47Z</time>
      </trkpt>
      <trkpt lat="46.42503" lon="4.71397">
        <ele>597</ele>
        <time>2022-08-22T20:52:58Z</time>
      </trkpt>
      <trkpt lat="46.42525" lon="4.71381">
        <ele>594</ele>
        <time>2022-08-22T20:53:04Z</time>
      </trkpt>
      <trkpt lat="46.42555" lon="4.7141">
        <ele>592</ele>
        <time>2022-08-22T20:53:12Z</time>
      </trkpt>
      <trkpt lat="46.42624" lon="4.71484">
        <ele>580</ele>
        <time>2022-08-22T20:53:32Z</time>
      </trkpt>
      <trkpt lat="46.42769" lon="4.71645">
        <ele>545</ele>
        <time>2022-08-22T20:54:15Z</time>
      </trkpt>
      <trkpt lat="46.42777" lon="4.71676">
        <ele>540</ele>
        <time>2022-08-22T20:54:20Z</time>
      </trkpt>
      <trkpt lat="46.42808" lon="4.71694">
        <ele>534</ele>
        <time>2022-08-22T20:54:28Z</time>
      </trkpt>
      <trkpt lat="46.42848" lon="4.71723">
        <ele>529</ele>
        <time>2022-08-22T20:54:38Z</time>
      </trkpt>
      <trkpt lat="46.42859" lon="4.71733">
        <ele>528</ele>
        <time>2022-08-22T20:54:41Z</time>
      </trkpt>
      <trkpt lat="46.42857" lon="4.71757">
        <ele>526</ele>
        <time>2022-08-22T20:54:45Z</time>
      </trkpt>
      <trkpt lat="46.42847" lon="4.71803">
        <ele>523</ele>
        <time>2022-08-22T20:54:53Z</time>
      </trkpt>
      <trkpt lat="46.42787" lon="4.72052">
        <ele>501</ele>
        <time>2022-08-22T20:55:35Z</time>
      </trkpt>
      <trkpt lat="46.42781" lon="4.7211">
        <ele>496</ele>
        <time>2022-08-22T20:55:45Z</time>
      </trkpt>
      <trkpt lat="46.42782" lon="4.72142">
        <ele>492</ele>
        <time>2022-08-22T20:55:50Z</time>
      </trkpt>
      <trkpt lat="46.42772" lon="4.72216">
        <ele>482</ele>
        <time>2022-08-22T20:56:02Z</time>
      </trkpt>
      <trkpt lat="46.42755" lon="4.72432">
        <ele>452</ele>
        <time>2022-08-22T20:56:37Z</time>
      </trkpt>
      <trkpt lat="46.42753" lon="4.72506">
        <ele>444</ele>
        <time>2022-08-22T20:56:49Z</time>
      </trkpt>
      <trkpt lat="46.4277" lon="4.72604">
        <ele>440</ele>
        <time>2022-08-22T20:57:05Z</time>
      </trkpt>
      <trkpt lat="46.42775" lon="4.72628">
        <ele>438</ele>
        <time>2022-08-22T20:57:09Z</time>
      </trkpt>
      <trkpt lat="46.42805" lon="4.72707">
        <ele>432</ele>
        <time>2022-08-22T20:57:24Z</time>
      </trkpt>
      <trkpt lat="46.42816" lon="4.72765">
        <ele>423</ele>
        <time>2022-08-22T20:57:34Z</time>
      </trkpt>
      <trkpt lat="46.42817" lon="4.72782">
        <ele>421</ele>
        <time>2022-08-22T20:57:36Z</time>
      </trkpt>
      <trkpt lat="46.42819" lon="4.72825">
        <ele>413</ele>
        <time>2022-08-22T20:57:43Z</time>
      </trkpt>
      <trkpt lat="46.42854" lon="4.72857">
        <ele>412</ele>
        <time>2022-08-22T20:57:53Z</time>
      </trkpt>
      <trkpt lat="46.42839" lon="4.72871">
        <ele>410</ele>
        <time>2022-08-22T20:57:57Z</time>
      </trkpt>
      <trkpt lat="46.42833" lon="4.72871">
        <ele>409</ele>
        <time>2022-08-22T20:57:59Z</time>
      </trkpt>
      <trkpt lat="46.42825" lon="4.72897">
        <ele>407</ele>
        <time>2022-08-22T20:58:03Z</time>
      </trkpt>
      <trkpt lat="46.42831" lon="4.72907">
        <ele>406</ele>
        <time>2022-08-22T20:58:05Z</time>
      </trkpt>
      <trkpt lat="46.42856" lon="4.72931">
        <ele>405</ele>
        <time>2022-08-22T20:58:12Z</time>
      </trkpt>
      <trkpt lat="46.42925" lon="4.73015">
        <ele>398</ele>
        <time>2022-08-22T20:58:33Z</time>
      </trkpt>
      <trkpt lat="46.42928" lon="4.73032">
        <ele>399</ele>
        <time>2022-08-22T20:58:36Z</time>
      </trkpt>
      <trkpt lat="46.42945" lon="4.73096">
        <ele>397</ele>
        <time>2022-08-22T20:58:47Z</time>
      </trkpt>
      <trkpt lat="46.42952" lon="4.73136">
        <ele>392</ele>
        <time>2022-08-22T20:58:54Z</time>
      </trkpt>
      <trkpt lat="46.4295" lon="4.73168">
        <ele>388</ele>
        <time>2022-08-22T20:58:59Z</time>
      </trkpt>
      <trkpt lat="46.42941" lon="4.73177">
        <ele>388</ele>
        <time>2022-08-22T20:59:02Z</time>
      </trkpt>
      <trkpt lat="46.42927" lon="4.73202">
        <ele>385</ele>
        <time>2022-08-22T20:59:07Z</time>
      </trkpt>
      <trkpt lat="46.42903" lon="4.73214">
        <ele>384</ele>
        <time>2022-08-22T20:59:13Z</time>
      </trkpt>
      <trkpt lat="46.42853" lon="4.73234">
        <ele>379</ele>
        <time>2022-08-22T20:59:25Z</time>
      </trkpt>
      <trkpt lat="46.42828" lon="4.7324">
        <ele>378</ele>
        <time>2022-08-22T20:59:31Z</time>
      </trkpt>
      <trkpt lat="46.42808" lon="4.73255">
        <ele>377</ele>
        <time>2022-08-22T20:59:36Z</time>
      </trkpt>
      <trkpt lat="46.42791" lon="4.73282">
        <ele>375</ele>
        <time>2022-08-22T20:59:42Z</time>
      </trkpt>
      <trkpt lat="46.42781" lon="4.73312">
        <ele>372</ele>
        <time>2022-08-22T20:59:47Z</time>
      </trkpt>
      <trkpt lat="46.42776" lon="4.73335">
        <ele>370</ele>
        <time>2022-08-22T20:59:51Z</time>
      </trkpt>
      <trkpt lat="46.42766" lon="4.73352">
        <ele>371</ele>
        <time>2022-08-22T20:59:55Z</time>
      </trkpt>
      <trkpt lat="46.42757" lon="4.73375">
        <ele>372</ele>
        <time>2022-08-22T20:59:59Z</time>
      </trkpt>
      <trkpt lat="46.42754" lon="4.73391">
        <ele>372</ele>
        <time>2022-08-22T21:00:02Z</time>
      </trkpt>
      <trkpt lat="46.42754" lon="4.7342">
        <ele>373</ele>
        <time>2022-08-22T21:00:06Z</time>
      </trkpt>
      <trkpt lat="46.42785" lon="4.73594">
        <ele>376</ele>
        <time>2022-08-22T21:00:35Z</time>
      </trkpt>
      <trkpt lat="46.42794" lon="4.73657">
        <ele>378</ele>
        <time>2022-08-22T21:00:46Z</time>
      </trkpt>
      <trkpt lat="46.42796" lon="4.73695">
        <ele>379</ele>
        <time>2022-08-22T21:00:52Z</time>
      </trkpt>
      <trkpt lat="46.42789" lon="4.73768">
        <ele>381</ele>
        <time>2022-08-22T21:01:04Z</time>
      </trkpt>
      <trkpt lat="46.42765" lon="4.73964">
        <ele>378</ele>
        <time>2022-08-22T21:01:36Z</time>
      </trkpt>
      <trkpt lat="46.42764" lon="4.73996">
        <ele>376</ele>
        <time>2022-08-22T21:01:41Z</time>
      </trkpt>
      <trkpt lat="46.42766" lon="4.74015">
        <ele>377</ele>
        <time>2022-08-22T21:01:44Z</time>
      </trkpt>
      <trkpt lat="46.4277" lon="4.74031">
        <ele>377</ele>
        <time>2022-08-22T21:01:47Z</time>
      </trkpt>
      <trkpt lat="46.42778" lon="4.74058">
        <ele>378</ele>
        <time>2022-08-22T21:01:51Z</time>
      </trkpt>
      <trkpt lat="46.42842" lon="4.7418">
        <ele>378</ele>
        <time>2022-08-22T21:02:16Z</time>
      </trkpt>
      <trkpt lat="46.42897" lon="4.74293">
        <ele>374</ele>
        <time>2022-08-22T21:02:38Z</time>
      </trkpt>
      <trkpt lat="46.42901" lon="4.743">
        <ele>374</ele>
        <time>2022-08-22T21:02:40Z</time>
      </trkpt>
      <trkpt lat="46.42921" lon="4.74317">
        <ele>375</ele>
        <time>2022-08-22T21:02:45Z</time>
      </trkpt>
      <trkpt lat="46.42931" lon="4.74348">
        <ele>377</ele>
        <time>2022-08-22T21:02:51Z</time>
      </trkpt>
      <trkpt lat="46.42986" lon="4.74375">
        <ele>383</ele>
        <time>2022-08-22T21:03:04Z</time>
      </trkpt>
      <trkpt lat="46.43009" lon="4.74378">
        <ele>386</ele>
        <time>2022-08-22T21:03:10Z</time>
      </trkpt>
      <trkpt lat="46.43024" lon="4.74387">
        <ele>387</ele>
        <time>2022-08-22T21:03:13Z</time>
      </trkpt>
      <trkpt lat="46.43046" lon="4.74412">
        <ele>391</ele>
        <time>2022-08-22T21:03:20Z</time>
      </trkpt>
      <trkpt lat="46.43063" lon="4.74423">
        <ele>393</ele>
        <time>2022-08-22T21:03:24Z</time>
      </trkpt>
      <trkpt lat="46.43083" lon="4.74431">
        <ele>396</ele>
        <time>2022-08-22T21:03:29Z</time>
      </trkpt>
      <trkpt lat="46.43091" lon="4.74464">
        <ele>399</ele>
        <time>2022-08-22T21:03:35Z</time>
      </trkpt>
      <trkpt lat="46.43124" lon="4.74474">
        <ele>400</ele>
        <time>2022-08-22T21:03:43Z</time>
      </trkpt>
      <trkpt lat="46.43136" lon="4.74487">
        <ele>402</ele>
        <time>2022-08-22T21:03:46Z</time>
      </trkpt>
      <trkpt lat="46.43151" lon="4.74502">
        <ele>406</ele>
        <time>2022-08-22T21:03:50Z</time>
      </trkpt>
      <trkpt lat="46.43168" lon="4.74529">
        <ele>408</ele>
        <time>2022-08-22T21:03:56Z</time>
      </trkpt>
      <trkpt lat="46.43203" lon="4.74564">
        <ele>405</ele>
        <time>2022-08-22T21:04:06Z</time>
      </trkpt>
      <trkpt lat="46.43235" lon="4.74582">
        <ele>405</ele>
        <time>2022-08-22T21:04:14Z</time>
      </trkpt>
      <trkpt lat="46.4326" lon="4.74621">
        <ele>404</ele>
        <time>2022-08-22T21:04:23Z</time>
      </trkpt>
      <trkpt lat="46.433" lon="4.74641">
        <ele>397</ele>
        <time>2022-08-22T21:04:33Z</time>
      </trkpt>
      <trkpt lat="46.4334" lon="4.74678">
        <ele>396</ele>
        <time>2022-08-22T21:04:44Z</time>
      </trkpt>
      <trkpt lat="46.43364" lon="4.74686">
        <ele>388</ele>
        <time>2022-08-22T21:04:49Z</time>
      </trkpt>
      <trkpt lat="46.43443" lon="4.74761">
        <ele>378</ele>
        <time>2022-08-22T21:05:11Z</time>
      </trkpt>
      <trkpt lat="46.43486" lon="4.74813">
        <ele>370</ele>
        <time>2022-08-22T21:05:25Z</time>
      </trkpt>
      <trkpt lat="46.43482" lon="4.74832">
        <ele>375</ele>
        <time>2022-08-22T21:05:28Z</time>
      </trkpt>
      <trkpt lat="46.43504" lon="4.74884">
        <ele>371</ele>
        <time>2022-08-22T21:05:38Z</time>
      </trkpt>
      <trkpt lat="46.43503" lon="4.7491">
        <ele>372</ele>
        <time>2022-08-22T21:05:42Z</time>
      </trkpt>
      <trkpt lat="46.43515" lon="4.74932">
        <ele>367</ele>
        <time>2022-08-22T21:05:46Z</time>
      </trkpt>
      <trkpt lat="46.43532" lon="4.74997">
        <ele>361</ele>
        <time>2022-08-22T21:05:57Z</time>
      </trkpt>
      <trkpt lat="46.43558" lon="4.75029">
        <ele>354</ele>
        <time>2022-08-22T21:06:05Z</time>
      </trkpt>
      <trkpt lat="46.43574" lon="4.75067">
        <ele>351</ele>
        <time>2022-08-22T21:06:13Z</time>
      </trkpt>
      <trkpt lat="46.43564" lon="4.75098">
        <ele>350</ele>
        <time>2022-08-22T21:06:18Z</time>
      </trkpt>
      <trkpt lat="46.43572" lon="4.75173">
        <ele>342</ele>
        <time>2022-08-22T21:06:30Z</time>
      </trkpt>
      <trkpt lat="46.4357" lon="4.75223">
        <ele>337</ele>
        <time>2022-08-22T21:06:38Z</time>
      </trkpt>
      <trkpt lat="46.43599" lon="4.75227">
        <ele>334</ele>
        <time>2022-08-22T21:06:45Z</time>
      </trkpt>
      <trkpt lat="46.43615" lon="4.75243">
        <ele>330</ele>
        <time>2022-08-22T21:06:50Z</time>
      </trkpt>
      <trkpt lat="46.43613" lon="4.75291">
        <ele>325</ele>
        <time>2022-08-22T21:06:57Z</time>
      </trkpt>
      <trkpt lat="46.43605" lon="4.75332">
        <ele>321</ele>
        <time>2022-08-22T21:07:04Z</time>
      </trkpt>
      <trkpt lat="46.43575" lon="4.75357">
        <ele>320</ele>
        <time>2022-08-22T21:07:12Z</time>
      </trkpt>
      <trkpt lat="46.43576" lon="4.75382">
        <ele>315</ele>
        <time>2022-08-22T21:07:16Z</time>
      </trkpt>
      <trkpt lat="46.43561" lon="4.75419">
        <ele>309</ele>
        <time>2022-08-22T21:07:23Z</time>
      </trkpt>
      <trkpt lat="46.43545" lon="4.75452">
        <ele>302</ele>
        <time>2022-08-22T21:07:30Z</time>
      </trkpt>
      <trkpt lat="46.43528" lon="4.75476">
        <ele>298</ele>
        <time>2022-08-22T21:07:35Z</time>
      </trkpt>
      <trkpt lat="46.435" lon="4.75511">
        <ele>292</ele>
        <time>2022-08-22T21:07:44Z</time>
      </trkpt>
      <trkpt lat="46.43464" lon="4.75546">
        <ele>283</ele>
        <time>2022-08-22T21:07:54Z</time>
      </trkpt>
      <trkpt lat="46.43455" lon="4.75536">
        <ele>283</ele>
        <time>2022-08-22T21:07:57Z</time>
      </trkpt>
      <trkpt lat="46.43443" lon="4.75556">
        <ele>279</ele>
        <time>2022-08-22T21:08:01Z</time>
      </trkpt>
      <trkpt lat="46.43423" lon="4.75593">
        <ele>274</ele>
        <time>2022-08-22T21:08:09Z</time>
      </trkpt>
      <trkpt lat="46.43425" lon="4.75599">
        <ele>273</ele>
        <time>2022-08-22T21:08:10Z</time>
      </trkpt>
      <trkpt lat="46.43427" lon="4.7561">
        <ele>273</ele>
        <time>2022-08-22T21:08:12Z</time>
      </trkpt>
      <trkpt lat="46.4344" lon="4.75633">
        <ele>272</ele>
        <time>2022-08-22T21:08:16Z</time>
      </trkpt>
      <trkpt lat="46.43446" lon="4.75654">
        <ele>270</ele>
        <time>2022-08-22T21:08:20Z</time>
      </trkpt>
      <trkpt lat="46.43412" lon="4.75698">
        <ele>266</ele>
        <time>2022-08-22T21:08:31Z</time>
      </trkpt>
      <trkpt lat="46.43386" lon="4.7573">
        <ele>263</ele>
        <time>2022-08-22T21:08:39Z</time>
      </trkpt>
      <trkpt lat="46.43352" lon="4.75761">
        <ele>260</ele>
        <time>2022-08-22T21:08:48Z</time>
      </trkpt>
      <trkpt lat="46.43343" lon="4.75781">
        <ele>259</ele>
        <time>2022-08-22T21:08:52Z</time>
      </trkpt>
      <trkpt lat="46.43313" lon="4.75837">
        <ele>255</ele>
        <time>2022-08-22T21:09:03Z</time>
      </trkpt>
      <trkpt lat="46.43303" lon="4.75867">
        <ele>253</ele>
        <time>2022-08-22T21:09:09Z</time>
      </trkpt>
      <trkpt lat="46.43244" lon="4.76088">
        <ele>249</ele>
        <time>2022-08-22T21:09:47Z</time>
      </trkpt>
      <trkpt lat="46.43249" lon="4.76111">
        <ele>248</ele>
        <time>2022-08-22T21:09:51Z</time>
      </trkpt>
      <trkpt lat="46.4326" lon="4.76127">
        <ele>247</ele>
        <time>2022-08-22T21:09:54Z</time>
      </trkpt>
      <trkpt lat="46.43276" lon="4.76142">
        <ele>246</ele>
        <time>2022-08-22T21:09:59Z</time>
      </trkpt>
      <trkpt lat="46.43322" lon="4.76179">
        <ele>244</ele>
        <time>2022-08-22T21:10:11Z</time>
      </trkpt>
      <trkpt lat="46.43333" lon="4.76195">
        <ele>243</ele>
        <time>2022-08-22T21:10:15Z</time>
      </trkpt>
      <trkpt lat="46.43329" lon="4.76213">
        <ele>242</ele>
        <time>2022-08-22T21:10:18Z</time>
      </trkpt>
      <trkpt lat="46.43327" lon="4.76299">
        <ele>240</ele>
        <time>2022-08-22T21:10:31Z</time>
      </trkpt>
      <trkpt lat="46.43328" lon="4.76319">
        <ele>240</ele>
        <time>2022-08-22T21:10:35Z</time>
      </trkpt>
      <trkpt lat="46.43333" lon="4.76328">
        <ele>240</ele>
        <time>2022-08-22T21:10:37Z</time>
      </trkpt>
      <trkpt lat="46.43334" lon="4.76331">
        <ele>240</ele>
        <time>2022-08-22T21:10:37Z</time>
      </trkpt>
      <trkpt lat="46.4336" lon="4.76315">
        <ele>240</ele>
        <time>2022-08-22T21:10:44Z</time>
      </trkpt>
      <trkpt lat="46.43375" lon="4.76311">
        <ele>240</ele>
        <time>2022-08-22T21:10:47Z</time>
      </trkpt>
      <trkpt lat="46.43374" lon="4.76365">
        <ele>240</ele>
        <time>2022-08-22T21:10:56Z</time>
      </trkpt>
      <trkpt lat="46.43372" lon="4.76462">
        <ele>243</ele>
        <time>2022-08-22T21:11:12Z</time>
      </trkpt>
      <trkpt lat="46.43334" lon="4.76461">
        <ele>243</ele>
        <time>2022-08-22T21:11:20Z</time>
      </trkpt>
      <trkpt lat="46.43168" lon="4.76434">
        <ele>239</ele>
        <time>2022-08-22T21:11:59Z</time>
      </trkpt>
      <trkpt lat="46.43099" lon="4.76427">
        <ele>238</ele>
        <time>2022-08-22T21:12:16Z</time>
      </trkpt>
      <trkpt lat="46.43089" lon="4.7638">
        <ele>237</ele>
        <time>2022-08-22T21:12:24Z</time>
      </trkpt>
    </trkseg>
  </trk>
</gpx>